<?xml version="1.0" encoding="UTF-8" standalone="no" ?>
<gpx xmlns="http://www.topografix.com/GPX/1/1" xmlns:xsi="http://www.w3.org/2001/XMLSchema-instance" xsi:schemaLocation="http://www.topografix.com/GPX/1/1 http://www.topografix.com/GPX/1/1/gpx.xsd" version="1.1" creator="VisuGPX - https://www.visugpx.com">
  <metadata>
    <name>099. Crêtes du Plateau de Sèze et Mont Trésor</name>
    <desc><![CDATA[Lien Facebook images et vidéos: 
https://www.facebook.com/share/v/1VFVWKLdtA/]]></desc>
  </metadata>
  <trk>
    <name><![CDATA[099. Crêtes du Plateau de Sèze et Mont Trésor]]></name>
    <desc><![CDATA[Lien Facebook images et vidéos: 
https://www.facebook.com/share/v/1VFVWKLdtA/]]></desc>
    <extensions>
      <line xmlns="http://www.topografix.com/GPX/gpx_style/0/2">
        <color>0000FF</color>
        <opacity>0.1</opacity>
        <width>4</width>
      </line>
    </extensions>
    <trkseg>
      <trkpt lat="43.69383" lon="5.25003">
        <ele>383.2</ele>
        <time>2025-12-07T21:39:20Z</time>
      </trkpt>
      <trkpt lat="43.69382" lon="5.25003">
        <ele>383.1</ele>
        <time>2025-12-07T21:39:20Z</time>
      </trkpt>
      <trkpt lat="43.69375" lon="5.25006">
        <ele>383.3</ele>
        <time>2025-12-07T21:39:20Z</time>
      </trkpt>
      <trkpt lat="43.6936" lon="5.25009">
        <ele>382.3</ele>
        <time>2025-12-07T21:39:20Z</time>
      </trkpt>
      <trkpt lat="43.69352" lon="5.25013">
        <ele>382.4</ele>
        <time>2025-12-07T21:39:20Z</time>
      </trkpt>
      <trkpt lat="43.69347" lon="5.25014">
        <ele>382.4</ele>
        <time>2025-12-07T21:39:20Z</time>
      </trkpt>
      <trkpt lat="43.6935" lon="5.25024">
        <ele>384.2</ele>
        <time>2025-12-07T21:39:20Z</time>
      </trkpt>
      <trkpt lat="43.69352" lon="5.2503">
        <ele>384.8</ele>
        <time>2025-12-07T21:39:20Z</time>
      </trkpt>
      <trkpt lat="43.69356" lon="5.25034">
        <ele>385.2</ele>
        <time>2025-12-07T21:39:20Z</time>
      </trkpt>
      <trkpt lat="43.69354" lon="5.2504">
        <ele>385.1</ele>
        <time>2025-12-07T21:39:20Z</time>
      </trkpt>
      <trkpt lat="43.69348" lon="5.25045">
        <ele>385.7</ele>
        <time>2025-12-07T21:39:20Z</time>
      </trkpt>
      <trkpt lat="43.69338" lon="5.25055">
        <ele>386.2</ele>
        <time>2025-12-07T21:39:20Z</time>
      </trkpt>
      <trkpt lat="43.69322" lon="5.25068">
        <ele>387.7</ele>
        <time>2025-12-07T21:39:20Z</time>
      </trkpt>
      <trkpt lat="43.69306" lon="5.2508">
        <ele>387.9</ele>
        <time>2025-12-07T21:39:20Z</time>
      </trkpt>
      <trkpt lat="43.69287" lon="5.2509">
        <ele>389.1</ele>
        <time>2025-12-07T21:39:20Z</time>
      </trkpt>
      <trkpt lat="43.69269" lon="5.25096">
        <ele>389.2</ele>
        <time>2025-12-07T21:39:20Z</time>
      </trkpt>
      <trkpt lat="43.69254" lon="5.25103">
        <ele>390.8</ele>
        <time>2025-12-07T21:39:20Z</time>
      </trkpt>
      <trkpt lat="43.6924" lon="5.25111">
        <ele>392.1</ele>
        <time>2025-12-07T21:39:20Z</time>
      </trkpt>
      <trkpt lat="43.69236" lon="5.25113">
        <ele>392.5</ele>
        <time>2025-12-07T21:39:20Z</time>
      </trkpt>
      <trkpt lat="43.69223" lon="5.25119">
        <ele>395</ele>
        <time>2025-12-07T21:39:20Z</time>
      </trkpt>
      <trkpt lat="43.69211" lon="5.25122">
        <ele>398.4</ele>
        <time>2025-12-07T21:39:20Z</time>
      </trkpt>
      <trkpt lat="43.69203" lon="5.25125">
        <ele>399.5</ele>
        <time>2025-12-07T21:39:20Z</time>
      </trkpt>
      <trkpt lat="43.69192" lon="5.25129">
        <ele>403.1</ele>
        <time>2025-12-07T21:39:20Z</time>
      </trkpt>
      <trkpt lat="43.69182" lon="5.25132">
        <ele>405</ele>
        <time>2025-12-07T21:39:20Z</time>
      </trkpt>
      <trkpt lat="43.69176" lon="5.25134">
        <ele>405.7</ele>
        <time>2025-12-07T21:39:20Z</time>
      </trkpt>
      <trkpt lat="43.69169" lon="5.25146">
        <ele>406.3</ele>
        <time>2025-12-07T21:39:20Z</time>
      </trkpt>
      <trkpt lat="43.6916" lon="5.25151">
        <ele>407.7</ele>
        <time>2025-12-07T21:39:20Z</time>
      </trkpt>
      <trkpt lat="43.69151" lon="5.25159">
        <ele>408.3</ele>
        <time>2025-12-07T21:39:20Z</time>
      </trkpt>
      <trkpt lat="43.69145" lon="5.25162">
        <ele>408.4</ele>
        <time>2025-12-07T21:39:20Z</time>
      </trkpt>
      <trkpt lat="43.69135" lon="5.25166">
        <ele>408.7</ele>
        <time>2025-12-07T21:39:20Z</time>
      </trkpt>
      <trkpt lat="43.69125" lon="5.25167">
        <ele>409.1</ele>
        <time>2025-12-07T21:39:20Z</time>
      </trkpt>
      <trkpt lat="43.69119" lon="5.25169">
        <ele>409.2</ele>
        <time>2025-12-07T21:39:20Z</time>
      </trkpt>
      <trkpt lat="43.69114" lon="5.25174">
        <ele>409.2</ele>
        <time>2025-12-07T21:39:20Z</time>
      </trkpt>
      <trkpt lat="43.69113" lon="5.25184">
        <ele>409.3</ele>
        <time>2025-12-07T21:39:20Z</time>
      </trkpt>
      <trkpt lat="43.69114" lon="5.25198">
        <ele>409.5</ele>
        <time>2025-12-07T21:39:20Z</time>
      </trkpt>
      <trkpt lat="43.69114" lon="5.25204">
        <ele>409.5</ele>
        <time>2025-12-07T21:39:20Z</time>
      </trkpt>
      <trkpt lat="43.69116" lon="5.25222">
        <ele>409.8</ele>
        <time>2025-12-07T21:39:20Z</time>
      </trkpt>
      <trkpt lat="43.69114" lon="5.25231">
        <ele>409.8</ele>
        <time>2025-12-07T21:39:20Z</time>
      </trkpt>
      <trkpt lat="43.6911" lon="5.25238">
        <ele>410.2</ele>
        <time>2025-12-07T21:39:20Z</time>
      </trkpt>
      <trkpt lat="43.69106" lon="5.25251">
        <ele>410.6</ele>
        <time>2025-12-07T21:39:20Z</time>
      </trkpt>
      <trkpt lat="43.691" lon="5.25277">
        <ele>411</ele>
        <time>2025-12-07T21:39:20Z</time>
      </trkpt>
      <trkpt lat="43.69098" lon="5.25286">
        <ele>410.9</ele>
        <time>2025-12-07T21:39:20Z</time>
      </trkpt>
      <trkpt lat="43.6909" lon="5.25299">
        <ele>411.3</ele>
        <time>2025-12-07T21:39:20Z</time>
      </trkpt>
      <trkpt lat="43.69088" lon="5.25306">
        <ele>411.3</ele>
        <time>2025-12-07T21:39:20Z</time>
      </trkpt>
      <trkpt lat="43.69089" lon="5.25315">
        <ele>411</ele>
        <time>2025-12-07T21:39:20Z</time>
      </trkpt>
      <trkpt lat="43.69091" lon="5.25325">
        <ele>410.8</ele>
        <time>2025-12-07T21:39:20Z</time>
      </trkpt>
      <trkpt lat="43.69094" lon="5.25332">
        <ele>410.6</ele>
        <time>2025-12-07T21:39:20Z</time>
      </trkpt>
      <trkpt lat="43.69096" lon="5.25337">
        <ele>410.6</ele>
        <time>2025-12-07T21:39:20Z</time>
      </trkpt>
      <trkpt lat="43.69095" lon="5.25342">
        <ele>410.8</ele>
        <time>2025-12-07T21:39:20Z</time>
      </trkpt>
      <trkpt lat="43.69095" lon="5.25351">
        <ele>410.9</ele>
        <time>2025-12-07T21:39:20Z</time>
      </trkpt>
      <trkpt lat="43.69096" lon="5.25358">
        <ele>411.1</ele>
        <time>2025-12-07T21:39:20Z</time>
      </trkpt>
      <trkpt lat="43.691" lon="5.25366">
        <ele>411</ele>
        <time>2025-12-07T21:39:20Z</time>
      </trkpt>
      <trkpt lat="43.69105" lon="5.2537">
        <ele>411</ele>
        <time>2025-12-07T21:39:20Z</time>
      </trkpt>
      <trkpt lat="43.69112" lon="5.25374">
        <ele>411.2</ele>
        <time>2025-12-07T21:39:20Z</time>
      </trkpt>
      <trkpt lat="43.69118" lon="5.25373">
        <ele>410.6</ele>
        <time>2025-12-07T21:39:20Z</time>
      </trkpt>
      <trkpt lat="43.69123" lon="5.25371">
        <ele>410.5</ele>
        <time>2025-12-07T21:39:20Z</time>
      </trkpt>
      <trkpt lat="43.69127" lon="5.25369">
        <ele>410.3</ele>
        <time>2025-12-07T21:39:20Z</time>
      </trkpt>
      <trkpt lat="43.69132" lon="5.25371">
        <ele>410.3</ele>
        <time>2025-12-07T21:39:20Z</time>
      </trkpt>
      <trkpt lat="43.69141" lon="5.25378">
        <ele>410</ele>
        <time>2025-12-07T21:39:20Z</time>
      </trkpt>
      <trkpt lat="43.69151" lon="5.25384">
        <ele>410.1</ele>
        <time>2025-12-07T21:39:20Z</time>
      </trkpt>
      <trkpt lat="43.69162" lon="5.25392">
        <ele>410.6</ele>
        <time>2025-12-07T21:39:20Z</time>
      </trkpt>
      <trkpt lat="43.69175" lon="5.25402">
        <ele>411.7</ele>
        <time>2025-12-07T21:39:20Z</time>
      </trkpt>
      <trkpt lat="43.69185" lon="5.25405">
        <ele>412.2</ele>
        <time>2025-12-07T21:39:20Z</time>
      </trkpt>
      <trkpt lat="43.69194" lon="5.25405">
        <ele>412</ele>
        <time>2025-12-07T21:39:20Z</time>
      </trkpt>
      <trkpt lat="43.69204" lon="5.25405">
        <ele>412.3</ele>
        <time>2025-12-07T21:39:20Z</time>
      </trkpt>
      <trkpt lat="43.6921" lon="5.25407">
        <ele>412.4</ele>
        <time>2025-12-07T21:39:20Z</time>
      </trkpt>
      <trkpt lat="43.69212" lon="5.25408">
        <ele>412.5</ele>
        <time>2025-12-07T21:39:20Z</time>
      </trkpt>
      <trkpt lat="43.69215" lon="5.25411">
        <ele>412.7</ele>
        <time>2025-12-07T21:39:20Z</time>
      </trkpt>
      <trkpt lat="43.69218" lon="5.25418">
        <ele>413.3</ele>
        <time>2025-12-07T21:39:20Z</time>
      </trkpt>
      <trkpt lat="43.69221" lon="5.25429">
        <ele>413.3</ele>
        <time>2025-12-07T21:39:20Z</time>
      </trkpt>
      <trkpt lat="43.69225" lon="5.25449">
        <ele>413.7</ele>
        <time>2025-12-07T21:39:20Z</time>
      </trkpt>
      <trkpt lat="43.69226" lon="5.25454">
        <ele>413.9</ele>
        <time>2025-12-07T21:39:20Z</time>
      </trkpt>
      <trkpt lat="43.69225" lon="5.25466">
        <ele>414.3</ele>
        <time>2025-12-07T21:39:20Z</time>
      </trkpt>
      <trkpt lat="43.69226" lon="5.25469">
        <ele>414.5</ele>
        <time>2025-12-07T21:39:20Z</time>
      </trkpt>
      <trkpt lat="43.69228" lon="5.25478">
        <ele>414.8</ele>
        <time>2025-12-07T21:39:20Z</time>
      </trkpt>
      <trkpt lat="43.69229" lon="5.25484">
        <ele>414.4</ele>
        <time>2025-12-07T21:39:20Z</time>
      </trkpt>
      <trkpt lat="43.69228" lon="5.2549">
        <ele>414.9</ele>
        <time>2025-12-07T21:39:20Z</time>
      </trkpt>
      <trkpt lat="43.69227" lon="5.255">
        <ele>415.3</ele>
        <time>2025-12-07T21:39:20Z</time>
      </trkpt>
      <trkpt lat="43.69227" lon="5.25518">
        <ele>415.9</ele>
        <time>2025-12-07T21:39:20Z</time>
      </trkpt>
      <trkpt lat="43.69229" lon="5.25531">
        <ele>416.1</ele>
        <time>2025-12-07T21:39:20Z</time>
      </trkpt>
      <trkpt lat="43.69232" lon="5.25539">
        <ele>416.3</ele>
        <time>2025-12-07T21:39:20Z</time>
      </trkpt>
      <trkpt lat="43.69234" lon="5.25543">
        <ele>416.4</ele>
        <time>2025-12-07T21:39:20Z</time>
      </trkpt>
      <trkpt lat="43.69239" lon="5.25549">
        <ele>416.4</ele>
        <time>2025-12-07T21:39:20Z</time>
      </trkpt>
      <trkpt lat="43.6925" lon="5.25559">
        <ele>416.7</ele>
        <time>2025-12-07T21:39:20Z</time>
      </trkpt>
      <trkpt lat="43.69259" lon="5.25567">
        <ele>416.8</ele>
        <time>2025-12-07T21:39:20Z</time>
      </trkpt>
      <trkpt lat="43.69272" lon="5.25572">
        <ele>416.9</ele>
        <time>2025-12-07T21:39:20Z</time>
      </trkpt>
      <trkpt lat="43.69291" lon="5.25582">
        <ele>416.5</ele>
        <time>2025-12-07T21:39:20Z</time>
      </trkpt>
      <trkpt lat="43.69298" lon="5.25588">
        <ele>416</ele>
        <time>2025-12-07T21:39:20Z</time>
      </trkpt>
      <trkpt lat="43.69303" lon="5.25594">
        <ele>416</ele>
        <time>2025-12-07T21:39:20Z</time>
      </trkpt>
      <trkpt lat="43.69306" lon="5.256">
        <ele>415.8</ele>
        <time>2025-12-07T21:39:20Z</time>
      </trkpt>
      <trkpt lat="43.69307" lon="5.25608">
        <ele>416.2</ele>
        <time>2025-12-07T21:39:20Z</time>
      </trkpt>
      <trkpt lat="43.69309" lon="5.2562">
        <ele>416.7</ele>
        <time>2025-12-07T21:39:20Z</time>
      </trkpt>
      <trkpt lat="43.69311" lon="5.25628">
        <ele>417</ele>
        <time>2025-12-07T21:39:20Z</time>
      </trkpt>
      <trkpt lat="43.69313" lon="5.25633">
        <ele>417.1</ele>
        <time>2025-12-07T21:39:20Z</time>
      </trkpt>
      <trkpt lat="43.69318" lon="5.25636">
        <ele>417.2</ele>
        <time>2025-12-07T21:39:20Z</time>
      </trkpt>
      <trkpt lat="43.69324" lon="5.2564">
        <ele>417</ele>
        <time>2025-12-07T21:39:20Z</time>
      </trkpt>
      <trkpt lat="43.69332" lon="5.25649">
        <ele>416.8</ele>
        <time>2025-12-07T21:39:20Z</time>
      </trkpt>
      <trkpt lat="43.69343" lon="5.25662">
        <ele>417.4</ele>
        <time>2025-12-07T21:39:20Z</time>
      </trkpt>
      <trkpt lat="43.69346" lon="5.25668">
        <ele>417.4</ele>
        <time>2025-12-07T21:39:20Z</time>
      </trkpt>
      <trkpt lat="43.69347" lon="5.25678">
        <ele>417.6</ele>
        <time>2025-12-07T21:39:20Z</time>
      </trkpt>
      <trkpt lat="43.69349" lon="5.25692">
        <ele>418.6</ele>
        <time>2025-12-07T21:39:20Z</time>
      </trkpt>
      <trkpt lat="43.69351" lon="5.25698">
        <ele>418.7</ele>
        <time>2025-12-07T21:39:20Z</time>
      </trkpt>
      <trkpt lat="43.69355" lon="5.25703">
        <ele>418.8</ele>
        <time>2025-12-07T21:39:20Z</time>
      </trkpt>
      <trkpt lat="43.69365" lon="5.25718">
        <ele>419.1</ele>
        <time>2025-12-07T21:39:20Z</time>
      </trkpt>
      <trkpt lat="43.69368" lon="5.25724">
        <ele>419.1</ele>
        <time>2025-12-07T21:39:20Z</time>
      </trkpt>
      <trkpt lat="43.6937" lon="5.2573">
        <ele>419.1</ele>
        <time>2025-12-07T21:39:20Z</time>
      </trkpt>
      <trkpt lat="43.6937" lon="5.25739">
        <ele>419.3</ele>
        <time>2025-12-07T21:39:20Z</time>
      </trkpt>
      <trkpt lat="43.69369" lon="5.2576">
        <ele>420</ele>
        <time>2025-12-07T21:39:20Z</time>
      </trkpt>
      <trkpt lat="43.69364" lon="5.25781">
        <ele>420.6</ele>
        <time>2025-12-07T21:39:20Z</time>
      </trkpt>
      <trkpt lat="43.69362" lon="5.25791">
        <ele>420.8</ele>
        <time>2025-12-07T21:39:20Z</time>
      </trkpt>
      <trkpt lat="43.69361" lon="5.25796">
        <ele>421</ele>
        <time>2025-12-07T21:39:20Z</time>
      </trkpt>
      <trkpt lat="43.69359" lon="5.258">
        <ele>419.1</ele>
        <time>2025-12-07T21:39:20Z</time>
      </trkpt>
      <trkpt lat="43.69355" lon="5.25799">
        <ele>419.6</ele>
        <time>2025-12-07T21:39:20Z</time>
      </trkpt>
      <trkpt lat="43.69351" lon="5.25798">
        <ele>421.8</ele>
        <time>2025-12-07T21:39:20Z</time>
      </trkpt>
      <trkpt lat="43.69349" lon="5.25797">
        <ele>421.8</ele>
        <time>2025-12-07T21:39:20Z</time>
      </trkpt>
      <trkpt lat="43.69343" lon="5.258">
        <ele>422.2</ele>
        <time>2025-12-07T21:39:20Z</time>
      </trkpt>
      <trkpt lat="43.69328" lon="5.25808">
        <ele>422</ele>
        <time>2025-12-07T21:39:20Z</time>
      </trkpt>
      <trkpt lat="43.69326" lon="5.25813">
        <ele>422</ele>
        <time>2025-12-07T21:39:20Z</time>
      </trkpt>
      <trkpt lat="43.69322" lon="5.25815">
        <ele>422.3</ele>
        <time>2025-12-07T21:39:20Z</time>
      </trkpt>
      <trkpt lat="43.69321" lon="5.25819">
        <ele>422</ele>
        <time>2025-12-07T21:39:20Z</time>
      </trkpt>
      <trkpt lat="43.69314" lon="5.25822">
        <ele>422.6</ele>
        <time>2025-12-07T21:39:20Z</time>
      </trkpt>
      <trkpt lat="43.69308" lon="5.25821">
        <ele>422.8</ele>
        <time>2025-12-07T21:39:20Z</time>
      </trkpt>
      <trkpt lat="43.693" lon="5.25822">
        <ele>423.1</ele>
        <time>2025-12-07T21:39:20Z</time>
      </trkpt>
      <trkpt lat="43.69295" lon="5.25821">
        <ele>423.2</ele>
        <time>2025-12-07T21:39:20Z</time>
      </trkpt>
      <trkpt lat="43.6929" lon="5.25825">
        <ele>423.4</ele>
        <time>2025-12-07T21:39:20Z</time>
      </trkpt>
      <trkpt lat="43.69286" lon="5.25821">
        <ele>423.4</ele>
        <time>2025-12-07T21:39:20Z</time>
      </trkpt>
      <trkpt lat="43.69283" lon="5.25819">
        <ele>423.2</ele>
        <time>2025-12-07T21:39:20Z</time>
      </trkpt>
      <trkpt lat="43.69275" lon="5.2582">
        <ele>423</ele>
        <time>2025-12-07T21:39:20Z</time>
      </trkpt>
      <trkpt lat="43.69259" lon="5.25815">
        <ele>423</ele>
        <time>2025-12-07T21:39:20Z</time>
      </trkpt>
      <trkpt lat="43.69244" lon="5.25817">
        <ele>423.3</ele>
        <time>2025-12-07T21:39:20Z</time>
      </trkpt>
      <trkpt lat="43.69237" lon="5.25821">
        <ele>423.6</ele>
        <time>2025-12-07T21:39:20Z</time>
      </trkpt>
      <trkpt lat="43.69229" lon="5.25817">
        <ele>423.5</ele>
        <time>2025-12-07T21:39:20Z</time>
      </trkpt>
      <trkpt lat="43.69221" lon="5.25816">
        <ele>423.6</ele>
        <time>2025-12-07T21:39:20Z</time>
      </trkpt>
      <trkpt lat="43.69197" lon="5.2582">
        <ele>423.4</ele>
        <time>2025-12-07T21:39:20Z</time>
      </trkpt>
      <trkpt lat="43.69173" lon="5.25816">
        <ele>423.4</ele>
        <time>2025-12-07T21:39:20Z</time>
      </trkpt>
      <trkpt lat="43.69157" lon="5.25822">
        <ele>423.1</ele>
        <time>2025-12-07T21:39:20Z</time>
      </trkpt>
      <trkpt lat="43.69147" lon="5.25823">
        <ele>423.2</ele>
        <time>2025-12-07T21:39:20Z</time>
      </trkpt>
      <trkpt lat="43.6914" lon="5.25831">
        <ele>423.2</ele>
        <time>2025-12-07T21:39:20Z</time>
      </trkpt>
      <trkpt lat="43.69136" lon="5.25833">
        <ele>423.2</ele>
        <time>2025-12-07T21:39:20Z</time>
      </trkpt>
      <trkpt lat="43.69131" lon="5.25834">
        <ele>423.4</ele>
        <time>2025-12-07T21:39:20Z</time>
      </trkpt>
      <trkpt lat="43.69127" lon="5.25835">
        <ele>423.6</ele>
        <time>2025-12-07T21:39:20Z</time>
      </trkpt>
      <trkpt lat="43.69124" lon="5.25839">
        <ele>423.7</ele>
        <time>2025-12-07T21:39:20Z</time>
      </trkpt>
      <trkpt lat="43.69119" lon="5.2584">
        <ele>424</ele>
        <time>2025-12-07T21:39:20Z</time>
      </trkpt>
      <trkpt lat="43.69117" lon="5.25845">
        <ele>424.1</ele>
        <time>2025-12-07T21:39:20Z</time>
      </trkpt>
      <trkpt lat="43.69114" lon="5.25848">
        <ele>424.1</ele>
        <time>2025-12-07T21:39:20Z</time>
      </trkpt>
      <trkpt lat="43.69108" lon="5.25852">
        <ele>424.7</ele>
        <time>2025-12-07T21:39:20Z</time>
      </trkpt>
      <trkpt lat="43.69104" lon="5.25854">
        <ele>424.7</ele>
        <time>2025-12-07T21:39:20Z</time>
      </trkpt>
      <trkpt lat="43.69098" lon="5.25856">
        <ele>425.1</ele>
        <time>2025-12-07T21:39:20Z</time>
      </trkpt>
      <trkpt lat="43.69095" lon="5.25862">
        <ele>425.2</ele>
        <time>2025-12-07T21:39:20Z</time>
      </trkpt>
      <trkpt lat="43.6909" lon="5.25858">
        <ele>425.6</ele>
        <time>2025-12-07T21:39:20Z</time>
      </trkpt>
      <trkpt lat="43.69083" lon="5.25856">
        <ele>425.9</ele>
        <time>2025-12-07T21:39:20Z</time>
      </trkpt>
      <trkpt lat="43.69078" lon="5.25861">
        <ele>426.4</ele>
        <time>2025-12-07T21:39:20Z</time>
      </trkpt>
      <trkpt lat="43.69048" lon="5.25878">
        <ele>428.8</ele>
        <time>2025-12-07T21:39:20Z</time>
      </trkpt>
      <trkpt lat="43.69039" lon="5.25885">
        <ele>429.8</ele>
        <time>2025-12-07T21:39:20Z</time>
      </trkpt>
      <trkpt lat="43.69035" lon="5.25892">
        <ele>429.9</ele>
        <time>2025-12-07T21:39:20Z</time>
      </trkpt>
      <trkpt lat="43.69027" lon="5.25893">
        <ele>429.9</ele>
        <time>2025-12-07T21:39:20Z</time>
      </trkpt>
      <trkpt lat="43.69019" lon="5.25888">
        <ele>429.9</ele>
        <time>2025-12-07T21:39:20Z</time>
      </trkpt>
      <trkpt lat="43.69015" lon="5.25889">
        <ele>429.9</ele>
        <time>2025-12-07T21:39:20Z</time>
      </trkpt>
      <trkpt lat="43.69011" lon="5.25896">
        <ele>429.8</ele>
        <time>2025-12-07T21:39:20Z</time>
      </trkpt>
      <trkpt lat="43.68994" lon="5.25886">
        <ele>429.6</ele>
        <time>2025-12-07T21:39:20Z</time>
      </trkpt>
      <trkpt lat="43.68991" lon="5.25898">
        <ele>429.8</ele>
        <time>2025-12-07T21:39:20Z</time>
      </trkpt>
      <trkpt lat="43.68987" lon="5.25906">
        <ele>429.7</ele>
        <time>2025-12-07T21:39:20Z</time>
      </trkpt>
      <trkpt lat="43.68983" lon="5.25921">
        <ele>429.8</ele>
        <time>2025-12-07T21:39:20Z</time>
      </trkpt>
      <trkpt lat="43.68981" lon="5.25929">
        <ele>429.4</ele>
        <time>2025-12-07T21:39:20Z</time>
      </trkpt>
      <trkpt lat="43.68977" lon="5.2593">
        <ele>428.3</ele>
        <time>2025-12-07T21:39:20Z</time>
      </trkpt>
      <trkpt lat="43.68972" lon="5.25933">
        <ele>425.4</ele>
        <time>2025-12-07T21:39:20Z</time>
      </trkpt>
      <trkpt lat="43.68969" lon="5.25935">
        <ele>423.3</ele>
        <time>2025-12-07T21:39:20Z</time>
      </trkpt>
      <trkpt lat="43.68964" lon="5.25938">
        <ele>421.5</ele>
        <time>2025-12-07T21:39:20Z</time>
      </trkpt>
      <trkpt lat="43.68961" lon="5.25938">
        <ele>420.2</ele>
        <time>2025-12-07T21:39:20Z</time>
      </trkpt>
      <trkpt lat="43.6896" lon="5.2594">
        <ele>420.2</ele>
        <time>2025-12-07T21:39:20Z</time>
      </trkpt>
      <trkpt lat="43.68959" lon="5.25946">
        <ele>419.2</ele>
        <time>2025-12-07T21:39:20Z</time>
      </trkpt>
      <trkpt lat="43.68957" lon="5.2595">
        <ele>417.2</ele>
        <time>2025-12-07T21:39:20Z</time>
      </trkpt>
      <trkpt lat="43.68952" lon="5.25955">
        <ele>415.7</ele>
        <time>2025-12-07T21:39:20Z</time>
      </trkpt>
      <trkpt lat="43.68948" lon="5.25959">
        <ele>414.3</ele>
        <time>2025-12-07T21:39:20Z</time>
      </trkpt>
      <trkpt lat="43.68947" lon="5.25967">
        <ele>413.3</ele>
        <time>2025-12-07T21:39:20Z</time>
      </trkpt>
      <trkpt lat="43.68946" lon="5.25979">
        <ele>412.2</ele>
        <time>2025-12-07T21:39:20Z</time>
      </trkpt>
      <trkpt lat="43.68944" lon="5.25984">
        <ele>410.4</ele>
        <time>2025-12-07T21:39:20Z</time>
      </trkpt>
      <trkpt lat="43.68941" lon="5.26004">
        <ele>407.6</ele>
        <time>2025-12-07T21:39:20Z</time>
      </trkpt>
      <trkpt lat="43.68939" lon="5.26009">
        <ele>406.4</ele>
        <time>2025-12-07T21:39:20Z</time>
      </trkpt>
      <trkpt lat="43.68936" lon="5.26017">
        <ele>404.3</ele>
        <time>2025-12-07T21:39:20Z</time>
      </trkpt>
      <trkpt lat="43.68934" lon="5.26025">
        <ele>402.7</ele>
        <time>2025-12-07T21:39:20Z</time>
      </trkpt>
      <trkpt lat="43.68931" lon="5.26031">
        <ele>400.1</ele>
        <time>2025-12-07T21:39:20Z</time>
      </trkpt>
      <trkpt lat="43.68926" lon="5.26036">
        <ele>398.3</ele>
        <time>2025-12-07T21:39:20Z</time>
      </trkpt>
      <trkpt lat="43.68922" lon="5.26038">
        <ele>397.2</ele>
        <time>2025-12-07T21:39:20Z</time>
      </trkpt>
      <trkpt lat="43.68918" lon="5.26042">
        <ele>395.6</ele>
        <time>2025-12-07T21:39:20Z</time>
      </trkpt>
      <trkpt lat="43.68913" lon="5.26046">
        <ele>394</ele>
        <time>2025-12-07T21:39:20Z</time>
      </trkpt>
      <trkpt lat="43.68911" lon="5.26051">
        <ele>394.5</ele>
        <time>2025-12-07T21:39:20Z</time>
      </trkpt>
      <trkpt lat="43.68908" lon="5.26051">
        <ele>393.2</ele>
        <time>2025-12-07T21:39:20Z</time>
      </trkpt>
      <trkpt lat="43.68898" lon="5.2605">
        <ele>391.3</ele>
        <time>2025-12-07T21:39:20Z</time>
      </trkpt>
      <trkpt lat="43.68887" lon="5.26051">
        <ele>389.4</ele>
        <time>2025-12-07T21:39:20Z</time>
      </trkpt>
      <trkpt lat="43.68881" lon="5.26056">
        <ele>390.4</ele>
        <time>2025-12-07T21:39:20Z</time>
      </trkpt>
      <trkpt lat="43.68874" lon="5.26064">
        <ele>392.6</ele>
        <time>2025-12-07T21:39:20Z</time>
      </trkpt>
      <trkpt lat="43.68871" lon="5.26069">
        <ele>393.9</ele>
        <time>2025-12-07T21:39:20Z</time>
      </trkpt>
      <trkpt lat="43.68869" lon="5.26074">
        <ele>394.3</ele>
        <time>2025-12-07T21:39:20Z</time>
      </trkpt>
      <trkpt lat="43.68865" lon="5.26076">
        <ele>394.1</ele>
        <time>2025-12-07T21:39:20Z</time>
      </trkpt>
      <trkpt lat="43.68861" lon="5.26077">
        <ele>394.5</ele>
        <time>2025-12-07T21:39:20Z</time>
      </trkpt>
      <trkpt lat="43.6885" lon="5.2608">
        <ele>401.2</ele>
        <time>2025-12-07T21:39:20Z</time>
      </trkpt>
      <trkpt lat="43.68843" lon="5.26081">
        <ele>403.5</ele>
        <time>2025-12-07T21:39:20Z</time>
      </trkpt>
      <trkpt lat="43.68839" lon="5.26081">
        <ele>404.7</ele>
        <time>2025-12-07T21:39:20Z</time>
      </trkpt>
      <trkpt lat="43.68837" lon="5.26081">
        <ele>405.7</ele>
        <time>2025-12-07T21:39:20Z</time>
      </trkpt>
      <trkpt lat="43.68835" lon="5.26083">
        <ele>406.6</ele>
        <time>2025-12-07T21:39:20Z</time>
      </trkpt>
      <trkpt lat="43.68827" lon="5.26086">
        <ele>408.7</ele>
        <time>2025-12-07T21:39:20Z</time>
      </trkpt>
      <trkpt lat="43.68822" lon="5.26086">
        <ele>409.5</ele>
        <time>2025-12-07T21:39:20Z</time>
      </trkpt>
      <trkpt lat="43.68807" lon="5.26083">
        <ele>413.7</ele>
        <time>2025-12-07T21:39:20Z</time>
      </trkpt>
      <trkpt lat="43.688" lon="5.26086">
        <ele>414.8</ele>
        <time>2025-12-07T21:39:20Z</time>
      </trkpt>
      <trkpt lat="43.68793" lon="5.26085">
        <ele>416.1</ele>
        <time>2025-12-07T21:39:20Z</time>
      </trkpt>
      <trkpt lat="43.68782" lon="5.2608">
        <ele>417.4</ele>
        <time>2025-12-07T21:39:20Z</time>
      </trkpt>
      <trkpt lat="43.68773" lon="5.26077">
        <ele>416.8</ele>
        <time>2025-12-07T21:39:20Z</time>
      </trkpt>
      <trkpt lat="43.68761" lon="5.26071">
        <ele>418.1</ele>
        <time>2025-12-07T21:39:20Z</time>
      </trkpt>
      <trkpt lat="43.68751" lon="5.26068">
        <ele>419.4</ele>
        <time>2025-12-07T21:39:20Z</time>
      </trkpt>
      <trkpt lat="43.68743" lon="5.26063">
        <ele>420.3</ele>
        <time>2025-12-07T21:39:20Z</time>
      </trkpt>
      <trkpt lat="43.68739" lon="5.26058">
        <ele>420.2</ele>
        <time>2025-12-07T21:39:20Z</time>
      </trkpt>
      <trkpt lat="43.68729" lon="5.26058">
        <ele>421.4</ele>
        <time>2025-12-07T21:39:20Z</time>
      </trkpt>
      <trkpt lat="43.68727" lon="5.26062">
        <ele>421.6</ele>
        <time>2025-12-07T21:39:20Z</time>
      </trkpt>
      <trkpt lat="43.68725" lon="5.26067">
        <ele>420.3</ele>
        <time>2025-12-07T21:39:20Z</time>
      </trkpt>
      <trkpt lat="43.68722" lon="5.26069">
        <ele>420.3</ele>
        <time>2025-12-07T21:39:20Z</time>
      </trkpt>
      <trkpt lat="43.68718" lon="5.26072">
        <ele>418.4</ele>
        <time>2025-12-07T21:39:20Z</time>
      </trkpt>
      <trkpt lat="43.68716" lon="5.26075">
        <ele>416.7</ele>
        <time>2025-12-07T21:39:20Z</time>
      </trkpt>
      <trkpt lat="43.68715" lon="5.26081">
        <ele>416.3</ele>
        <time>2025-12-07T21:39:20Z</time>
      </trkpt>
      <trkpt lat="43.68715" lon="5.26087">
        <ele>415.2</ele>
        <time>2025-12-07T21:39:20Z</time>
      </trkpt>
      <trkpt lat="43.68714" lon="5.26091">
        <ele>414.8</ele>
        <time>2025-12-07T21:39:20Z</time>
      </trkpt>
      <trkpt lat="43.6871" lon="5.26095">
        <ele>416.1</ele>
        <time>2025-12-07T21:39:20Z</time>
      </trkpt>
      <trkpt lat="43.68707" lon="5.26098">
        <ele>417.6</ele>
        <time>2025-12-07T21:39:20Z</time>
      </trkpt>
      <trkpt lat="43.68703" lon="5.26106">
        <ele>420</ele>
        <time>2025-12-07T21:39:20Z</time>
      </trkpt>
      <trkpt lat="43.68701" lon="5.26109">
        <ele>419.9</ele>
        <time>2025-12-07T21:39:20Z</time>
      </trkpt>
      <trkpt lat="43.68693" lon="5.26113">
        <ele>418.9</ele>
        <time>2025-12-07T21:39:20Z</time>
      </trkpt>
      <trkpt lat="43.68672" lon="5.26119">
        <ele>417.1</ele>
        <time>2025-12-07T21:39:20Z</time>
      </trkpt>
      <trkpt lat="43.68667" lon="5.26121">
        <ele>418</ele>
        <time>2025-12-07T21:39:20Z</time>
      </trkpt>
      <trkpt lat="43.68662" lon="5.26124">
        <ele>417.7</ele>
        <time>2025-12-07T21:39:20Z</time>
      </trkpt>
      <trkpt lat="43.68658" lon="5.26127">
        <ele>419.4</ele>
        <time>2025-12-07T21:39:20Z</time>
      </trkpt>
      <trkpt lat="43.68654" lon="5.26128">
        <ele>419.2</ele>
        <time>2025-12-07T21:39:20Z</time>
      </trkpt>
      <trkpt lat="43.68653" lon="5.26136">
        <ele>419.1</ele>
        <time>2025-12-07T21:39:20Z</time>
      </trkpt>
      <trkpt lat="43.68652" lon="5.2614">
        <ele>418.8</ele>
        <time>2025-12-07T21:39:20Z</time>
      </trkpt>
      <trkpt lat="43.6865" lon="5.26141">
        <ele>418.8</ele>
        <time>2025-12-07T21:39:20Z</time>
      </trkpt>
      <trkpt lat="43.68646" lon="5.26141">
        <ele>417.2</ele>
        <time>2025-12-07T21:39:20Z</time>
      </trkpt>
      <trkpt lat="43.68643" lon="5.26136">
        <ele>415.6</ele>
        <time>2025-12-07T21:39:20Z</time>
      </trkpt>
      <trkpt lat="43.68638" lon="5.26141">
        <ele>413.6</ele>
        <time>2025-12-07T21:39:20Z</time>
      </trkpt>
      <trkpt lat="43.68634" lon="5.26154">
        <ele>409.7</ele>
        <time>2025-12-07T21:39:20Z</time>
      </trkpt>
      <trkpt lat="43.68628" lon="5.2617">
        <ele>406.8</ele>
        <time>2025-12-07T21:39:20Z</time>
      </trkpt>
      <trkpt lat="43.68624" lon="5.26178">
        <ele>404.9</ele>
        <time>2025-12-07T21:39:20Z</time>
      </trkpt>
      <trkpt lat="43.68614" lon="5.2619">
        <ele>401.6</ele>
        <time>2025-12-07T21:39:20Z</time>
      </trkpt>
      <trkpt lat="43.68613" lon="5.26197">
        <ele>401.4</ele>
        <time>2025-12-07T21:39:20Z</time>
      </trkpt>
      <trkpt lat="43.68612" lon="5.26211">
        <ele>399</ele>
        <time>2025-12-07T21:39:20Z</time>
      </trkpt>
      <trkpt lat="43.68603" lon="5.26227">
        <ele>395.9</ele>
        <time>2025-12-07T21:39:20Z</time>
      </trkpt>
      <trkpt lat="43.68603" lon="5.26231">
        <ele>395.3</ele>
        <time>2025-12-07T21:39:20Z</time>
      </trkpt>
      <trkpt lat="43.68601" lon="5.26249">
        <ele>391.6</ele>
        <time>2025-12-07T21:39:20Z</time>
      </trkpt>
      <trkpt lat="43.68599" lon="5.26268">
        <ele>392.7</ele>
        <time>2025-12-07T21:39:20Z</time>
      </trkpt>
      <trkpt lat="43.68586" lon="5.26295">
        <ele>392.6</ele>
        <time>2025-12-07T21:39:20Z</time>
      </trkpt>
      <trkpt lat="43.68583" lon="5.26301">
        <ele>392</ele>
        <time>2025-12-07T21:39:20Z</time>
      </trkpt>
      <trkpt lat="43.68573" lon="5.26286">
        <ele>386.5</ele>
        <time>2025-12-07T21:39:20Z</time>
      </trkpt>
      <trkpt lat="43.6856" lon="5.26279">
        <ele>381.4</ele>
        <time>2025-12-07T21:39:20Z</time>
      </trkpt>
      <trkpt lat="43.6854" lon="5.26278">
        <ele>379.5</ele>
        <time>2025-12-07T21:39:20Z</time>
      </trkpt>
      <trkpt lat="43.68523" lon="5.26264">
        <ele>377.8</ele>
        <time>2025-12-07T21:39:20Z</time>
      </trkpt>
      <trkpt lat="43.6852" lon="5.26236">
        <ele>375.4</ele>
        <time>2025-12-07T21:39:20Z</time>
      </trkpt>
      <trkpt lat="43.68509" lon="5.26223">
        <ele>374.6</ele>
        <time>2025-12-07T21:39:20Z</time>
      </trkpt>
      <trkpt lat="43.68507" lon="5.26205">
        <ele>372.7</ele>
        <time>2025-12-07T21:39:20Z</time>
      </trkpt>
      <trkpt lat="43.6851" lon="5.26185">
        <ele>370.6</ele>
        <time>2025-12-07T21:39:20Z</time>
      </trkpt>
      <trkpt lat="43.68527" lon="5.26169">
        <ele>370.5</ele>
        <time>2025-12-07T21:39:20Z</time>
      </trkpt>
      <trkpt lat="43.68532" lon="5.2616">
        <ele>370.4</ele>
        <time>2025-12-07T21:39:20Z</time>
      </trkpt>
      <trkpt lat="43.68543" lon="5.26119">
        <ele>374.9</ele>
        <time>2025-12-07T21:39:20Z</time>
      </trkpt>
      <trkpt lat="43.68542" lon="5.26096">
        <ele>380.3</ele>
        <time>2025-12-07T21:39:20Z</time>
      </trkpt>
      <trkpt lat="43.68543" lon="5.26101">
        <ele>378.9</ele>
        <time>2025-12-07T21:39:20Z</time>
      </trkpt>
      <trkpt lat="43.68545" lon="5.26089">
        <ele>382.5</ele>
        <time>2025-12-07T21:39:20Z</time>
      </trkpt>
      <trkpt lat="43.68542" lon="5.26061">
        <ele>388.7</ele>
        <time>2025-12-07T21:39:20Z</time>
      </trkpt>
      <trkpt lat="43.68538" lon="5.26046">
        <ele>391.1</ele>
        <time>2025-12-07T21:39:20Z</time>
      </trkpt>
      <trkpt lat="43.68531" lon="5.26041">
        <ele>390.3</ele>
        <time>2025-12-07T21:39:20Z</time>
      </trkpt>
      <trkpt lat="43.6853" lon="5.26033">
        <ele>387.9</ele>
        <time>2025-12-07T21:39:20Z</time>
      </trkpt>
      <trkpt lat="43.6853" lon="5.26017">
        <ele>380.8</ele>
        <time>2025-12-07T21:39:20Z</time>
      </trkpt>
      <trkpt lat="43.68532" lon="5.26008">
        <ele>377.5</ele>
        <time>2025-12-07T21:39:20Z</time>
      </trkpt>
      <trkpt lat="43.68535" lon="5.26006">
        <ele>376.8</ele>
        <time>2025-12-07T21:39:20Z</time>
      </trkpt>
      <trkpt lat="43.6854" lon="5.26007">
        <ele>374.3</ele>
        <time>2025-12-07T21:39:20Z</time>
      </trkpt>
      <trkpt lat="43.68541" lon="5.26008">
        <ele>374.3</ele>
        <time>2025-12-07T21:39:20Z</time>
      </trkpt>
      <trkpt lat="43.68547" lon="5.26014">
        <ele>372.6</ele>
        <time>2025-12-07T21:39:20Z</time>
      </trkpt>
      <trkpt lat="43.68553" lon="5.26019">
        <ele>371.1</ele>
        <time>2025-12-07T21:39:20Z</time>
      </trkpt>
      <trkpt lat="43.68557" lon="5.26021">
        <ele>369.4</ele>
        <time>2025-12-07T21:39:20Z</time>
      </trkpt>
      <trkpt lat="43.68559" lon="5.26018">
        <ele>368.6</ele>
        <time>2025-12-07T21:39:20Z</time>
      </trkpt>
      <trkpt lat="43.68556" lon="5.26011">
        <ele>366</ele>
        <time>2025-12-07T21:39:20Z</time>
      </trkpt>
      <trkpt lat="43.68547" lon="5.25999">
        <ele>362.1</ele>
        <time>2025-12-07T21:39:20Z</time>
      </trkpt>
      <trkpt lat="43.68546" lon="5.25998">
        <ele>363.5</ele>
        <time>2025-12-07T21:39:20Z</time>
      </trkpt>
      <trkpt lat="43.68542" lon="5.25982">
        <ele>355.9</ele>
        <time>2025-12-07T21:39:20Z</time>
      </trkpt>
      <trkpt lat="43.6854" lon="5.25964">
        <ele>349.7</ele>
        <time>2025-12-07T21:39:20Z</time>
      </trkpt>
      <trkpt lat="43.6854" lon="5.25943">
        <ele>343.7</ele>
        <time>2025-12-07T21:39:20Z</time>
      </trkpt>
      <trkpt lat="43.68543" lon="5.25927">
        <ele>339.9</ele>
        <time>2025-12-07T21:39:20Z</time>
      </trkpt>
      <trkpt lat="43.68544" lon="5.25924">
        <ele>339.9</ele>
        <time>2025-12-07T21:39:20Z</time>
      </trkpt>
      <trkpt lat="43.68546" lon="5.25916">
        <ele>339.1</ele>
        <time>2025-12-07T21:39:20Z</time>
      </trkpt>
      <trkpt lat="43.68557" lon="5.25916">
        <ele>336.1</ele>
        <time>2025-12-07T21:39:20Z</time>
      </trkpt>
      <trkpt lat="43.68568" lon="5.25911">
        <ele>333.5</ele>
        <time>2025-12-07T21:39:20Z</time>
      </trkpt>
      <trkpt lat="43.68572" lon="5.2591">
        <ele>331.8</ele>
        <time>2025-12-07T21:39:20Z</time>
      </trkpt>
      <trkpt lat="43.68578" lon="5.25912">
        <ele>332.3</ele>
        <time>2025-12-07T21:39:20Z</time>
      </trkpt>
      <trkpt lat="43.68578" lon="5.25903">
        <ele>331.1</ele>
        <time>2025-12-07T21:39:20Z</time>
      </trkpt>
      <trkpt lat="43.68572" lon="5.25889">
        <ele>330.4</ele>
        <time>2025-12-07T21:39:20Z</time>
      </trkpt>
      <trkpt lat="43.68561" lon="5.25873">
        <ele>329</ele>
        <time>2025-12-07T21:39:20Z</time>
      </trkpt>
      <trkpt lat="43.68546" lon="5.25857">
        <ele>326.4</ele>
        <time>2025-12-07T21:39:20Z</time>
      </trkpt>
      <trkpt lat="43.68536" lon="5.25855">
        <ele>324.9</ele>
        <time>2025-12-07T21:39:20Z</time>
      </trkpt>
      <trkpt lat="43.68528" lon="5.25856">
        <ele>324.5</ele>
        <time>2025-12-07T21:39:20Z</time>
      </trkpt>
      <trkpt lat="43.68527" lon="5.25855">
        <ele>324.5</ele>
        <time>2025-12-07T21:39:20Z</time>
      </trkpt>
      <trkpt lat="43.68517" lon="5.25853">
        <ele>324.1</ele>
        <time>2025-12-07T21:39:20Z</time>
      </trkpt>
      <trkpt lat="43.68506" lon="5.25847">
        <ele>322.8</ele>
        <time>2025-12-07T21:39:20Z</time>
      </trkpt>
      <trkpt lat="43.68498" lon="5.25846">
        <ele>322.3</ele>
        <time>2025-12-07T21:39:20Z</time>
      </trkpt>
      <trkpt lat="43.68486" lon="5.25841">
        <ele>321.3</ele>
        <time>2025-12-07T21:39:20Z</time>
      </trkpt>
      <trkpt lat="43.6847" lon="5.25833">
        <ele>319.7</ele>
        <time>2025-12-07T21:39:20Z</time>
      </trkpt>
      <trkpt lat="43.68451" lon="5.25827">
        <ele>317.2</ele>
        <time>2025-12-07T21:39:20Z</time>
      </trkpt>
      <trkpt lat="43.68449" lon="5.25826">
        <ele>317.2</ele>
        <time>2025-12-07T21:39:20Z</time>
      </trkpt>
      <trkpt lat="43.68445" lon="5.25823">
        <ele>317.1</ele>
        <time>2025-12-07T21:39:20Z</time>
      </trkpt>
      <trkpt lat="43.68437" lon="5.25808">
        <ele>316.3</ele>
        <time>2025-12-07T21:39:20Z</time>
      </trkpt>
      <trkpt lat="43.68431" lon="5.25805">
        <ele>315.1</ele>
        <time>2025-12-07T21:39:20Z</time>
      </trkpt>
      <trkpt lat="43.68424" lon="5.25806">
        <ele>314.3</ele>
        <time>2025-12-07T21:39:20Z</time>
      </trkpt>
      <trkpt lat="43.68417" lon="5.25805">
        <ele>314.2</ele>
        <time>2025-12-07T21:39:20Z</time>
      </trkpt>
      <trkpt lat="43.68408" lon="5.258">
        <ele>313.6</ele>
        <time>2025-12-07T21:39:20Z</time>
      </trkpt>
      <trkpt lat="43.68392" lon="5.2579">
        <ele>311.6</ele>
        <time>2025-12-07T21:39:20Z</time>
      </trkpt>
      <trkpt lat="43.68376" lon="5.25785">
        <ele>309.9</ele>
        <time>2025-12-07T21:39:20Z</time>
      </trkpt>
      <trkpt lat="43.6837" lon="5.25784">
        <ele>308.3</ele>
        <time>2025-12-07T21:39:20Z</time>
      </trkpt>
      <trkpt lat="43.68363" lon="5.25788">
        <ele>308.4</ele>
        <time>2025-12-07T21:39:20Z</time>
      </trkpt>
      <trkpt lat="43.68353" lon="5.25795">
        <ele>308</ele>
        <time>2025-12-07T21:39:20Z</time>
      </trkpt>
      <trkpt lat="43.68348" lon="5.25797">
        <ele>307.4</ele>
        <time>2025-12-07T21:39:20Z</time>
      </trkpt>
      <trkpt lat="43.68344" lon="5.25795">
        <ele>307.4</ele>
        <time>2025-12-07T21:39:20Z</time>
      </trkpt>
      <trkpt lat="43.68341" lon="5.25779">
        <ele>306.9</ele>
        <time>2025-12-07T21:39:20Z</time>
      </trkpt>
      <trkpt lat="43.68328" lon="5.25759">
        <ele>305.8</ele>
        <time>2025-12-07T21:39:20Z</time>
      </trkpt>
      <trkpt lat="43.6832" lon="5.25737">
        <ele>305</ele>
        <time>2025-12-07T21:39:20Z</time>
      </trkpt>
      <trkpt lat="43.683" lon="5.25714">
        <ele>302.8</ele>
        <time>2025-12-07T21:39:20Z</time>
      </trkpt>
      <trkpt lat="43.68288" lon="5.25692">
        <ele>302.1</ele>
        <time>2025-12-07T21:39:20Z</time>
      </trkpt>
      <trkpt lat="43.6828" lon="5.25668">
        <ele>301.6</ele>
        <time>2025-12-07T21:39:20Z</time>
      </trkpt>
      <trkpt lat="43.68279" lon="5.25666">
        <ele>301.4</ele>
        <time>2025-12-07T21:39:20Z</time>
      </trkpt>
      <trkpt lat="43.6827" lon="5.25645">
        <ele>300.6</ele>
        <time>2025-12-07T21:39:20Z</time>
      </trkpt>
      <trkpt lat="43.68256" lon="5.2563">
        <ele>298.7</ele>
        <time>2025-12-07T21:39:20Z</time>
      </trkpt>
      <trkpt lat="43.68248" lon="5.25622">
        <ele>298.1</ele>
        <time>2025-12-07T21:39:20Z</time>
      </trkpt>
      <trkpt lat="43.68241" lon="5.25619">
        <ele>297.9</ele>
        <time>2025-12-07T21:39:20Z</time>
      </trkpt>
      <trkpt lat="43.68235" lon="5.2562">
        <ele>298</ele>
        <time>2025-12-07T21:39:20Z</time>
      </trkpt>
      <trkpt lat="43.68226" lon="5.25623">
        <ele>297.8</ele>
        <time>2025-12-07T21:39:20Z</time>
      </trkpt>
      <trkpt lat="43.68216" lon="5.25619">
        <ele>297.5</ele>
        <time>2025-12-07T21:39:20Z</time>
      </trkpt>
      <trkpt lat="43.68211" lon="5.25616">
        <ele>297.5</ele>
        <time>2025-12-07T21:39:20Z</time>
      </trkpt>
      <trkpt lat="43.68206" lon="5.25603">
        <ele>296.3</ele>
        <time>2025-12-07T21:39:20Z</time>
      </trkpt>
      <trkpt lat="43.68205" lon="5.25586">
        <ele>295.3</ele>
        <time>2025-12-07T21:39:20Z</time>
      </trkpt>
      <trkpt lat="43.68207" lon="5.25577">
        <ele>295.3</ele>
        <time>2025-12-07T21:39:20Z</time>
      </trkpt>
      <trkpt lat="43.68206" lon="5.25568">
        <ele>295</ele>
        <time>2025-12-07T21:39:20Z</time>
      </trkpt>
      <trkpt lat="43.68186" lon="5.2554">
        <ele>295.3</ele>
        <time>2025-12-07T21:39:20Z</time>
      </trkpt>
      <trkpt lat="43.68199" lon="5.25519">
        <ele>297</ele>
        <time>2025-12-07T21:39:20Z</time>
      </trkpt>
      <trkpt lat="43.68208" lon="5.25504">
        <ele>298</ele>
        <time>2025-12-07T21:39:20Z</time>
      </trkpt>
      <trkpt lat="43.68211" lon="5.25491">
        <ele>297.8</ele>
        <time>2025-12-07T21:39:20Z</time>
      </trkpt>
      <trkpt lat="43.68212" lon="5.25484">
        <ele>298.4</ele>
        <time>2025-12-07T21:39:20Z</time>
      </trkpt>
      <trkpt lat="43.68217" lon="5.25479">
        <ele>299</ele>
        <time>2025-12-07T21:39:20Z</time>
      </trkpt>
      <trkpt lat="43.68231" lon="5.25471">
        <ele>300.2</ele>
        <time>2025-12-07T21:39:20Z</time>
      </trkpt>
      <trkpt lat="43.6824" lon="5.25461">
        <ele>301.3</ele>
        <time>2025-12-07T21:39:20Z</time>
      </trkpt>
      <trkpt lat="43.68246" lon="5.25444">
        <ele>304.8</ele>
        <time>2025-12-07T21:39:20Z</time>
      </trkpt>
      <trkpt lat="43.68254" lon="5.25429">
        <ele>305.7</ele>
        <time>2025-12-07T21:39:20Z</time>
      </trkpt>
      <trkpt lat="43.68257" lon="5.25422">
        <ele>306.1</ele>
        <time>2025-12-07T21:39:20Z</time>
      </trkpt>
      <trkpt lat="43.68263" lon="5.25421">
        <ele>307.1</ele>
        <time>2025-12-07T21:39:20Z</time>
      </trkpt>
      <trkpt lat="43.68269" lon="5.25422">
        <ele>307</ele>
        <time>2025-12-07T21:39:20Z</time>
      </trkpt>
      <trkpt lat="43.6827" lon="5.25423">
        <ele>307</ele>
        <time>2025-12-07T21:39:20Z</time>
      </trkpt>
      <trkpt lat="43.6828" lon="5.25429">
        <ele>308.8</ele>
        <time>2025-12-07T21:39:20Z</time>
      </trkpt>
      <trkpt lat="43.68293" lon="5.25431">
        <ele>310</ele>
        <time>2025-12-07T21:39:20Z</time>
      </trkpt>
      <trkpt lat="43.68305" lon="5.25433">
        <ele>311.3</ele>
        <time>2025-12-07T21:39:20Z</time>
      </trkpt>
      <trkpt lat="43.68319" lon="5.25437">
        <ele>313.1</ele>
        <time>2025-12-07T21:39:20Z</time>
      </trkpt>
      <trkpt lat="43.68327" lon="5.25442">
        <ele>313.6</ele>
        <time>2025-12-07T21:39:20Z</time>
      </trkpt>
      <trkpt lat="43.68333" lon="5.25444">
        <ele>314.4</ele>
        <time>2025-12-07T21:39:20Z</time>
      </trkpt>
      <trkpt lat="43.68345" lon="5.25445">
        <ele>315.4</ele>
        <time>2025-12-07T21:39:20Z</time>
      </trkpt>
      <trkpt lat="43.68356" lon="5.25453">
        <ele>315.5</ele>
        <time>2025-12-07T21:39:20Z</time>
      </trkpt>
      <trkpt lat="43.68365" lon="5.25462">
        <ele>315.4</ele>
        <time>2025-12-07T21:39:20Z</time>
      </trkpt>
      <trkpt lat="43.6837" lon="5.25472">
        <ele>315.6</ele>
        <time>2025-12-07T21:39:20Z</time>
      </trkpt>
      <trkpt lat="43.68372" lon="5.25482">
        <ele>317.2</ele>
        <time>2025-12-07T21:39:20Z</time>
      </trkpt>
      <trkpt lat="43.68374" lon="5.25491">
        <ele>318.5</ele>
        <time>2025-12-07T21:39:20Z</time>
      </trkpt>
      <trkpt lat="43.6838" lon="5.25498">
        <ele>318.8</ele>
        <time>2025-12-07T21:39:20Z</time>
      </trkpt>
      <trkpt lat="43.68387" lon="5.25498">
        <ele>319.1</ele>
        <time>2025-12-07T21:39:20Z</time>
      </trkpt>
      <trkpt lat="43.68397" lon="5.25491">
        <ele>319.8</ele>
        <time>2025-12-07T21:39:20Z</time>
      </trkpt>
      <trkpt lat="43.68407" lon="5.25487">
        <ele>319.7</ele>
        <time>2025-12-07T21:39:20Z</time>
      </trkpt>
      <trkpt lat="43.68421" lon="5.25476">
        <ele>320.1</ele>
        <time>2025-12-07T21:39:20Z</time>
      </trkpt>
      <trkpt lat="43.68426" lon="5.25474">
        <ele>320.5</ele>
        <time>2025-12-07T21:39:20Z</time>
      </trkpt>
      <trkpt lat="43.68432" lon="5.25478">
        <ele>320.9</ele>
        <time>2025-12-07T21:39:20Z</time>
      </trkpt>
      <trkpt lat="43.68439" lon="5.25482">
        <ele>322.9</ele>
        <time>2025-12-07T21:39:20Z</time>
      </trkpt>
      <trkpt lat="43.68444" lon="5.25481">
        <ele>323.2</ele>
        <time>2025-12-07T21:39:20Z</time>
      </trkpt>
      <trkpt lat="43.68447" lon="5.25478">
        <ele>323.2</ele>
        <time>2025-12-07T21:39:20Z</time>
      </trkpt>
      <trkpt lat="43.68453" lon="5.25478">
        <ele>323.5</ele>
        <time>2025-12-07T21:39:20Z</time>
      </trkpt>
      <trkpt lat="43.6846" lon="5.25482">
        <ele>323.9</ele>
        <time>2025-12-07T21:39:20Z</time>
      </trkpt>
      <trkpt lat="43.68465" lon="5.25486">
        <ele>324.9</ele>
        <time>2025-12-07T21:39:20Z</time>
      </trkpt>
      <trkpt lat="43.68472" lon="5.25486">
        <ele>325.4</ele>
        <time>2025-12-07T21:39:20Z</time>
      </trkpt>
      <trkpt lat="43.68483" lon="5.25493">
        <ele>325.9</ele>
        <time>2025-12-07T21:39:20Z</time>
      </trkpt>
      <trkpt lat="43.68489" lon="5.25498">
        <ele>326.8</ele>
        <time>2025-12-07T21:39:20Z</time>
      </trkpt>
      <trkpt lat="43.68494" lon="5.25498">
        <ele>327</ele>
        <time>2025-12-07T21:39:20Z</time>
      </trkpt>
      <trkpt lat="43.68497" lon="5.25498">
        <ele>327</ele>
        <time>2025-12-07T21:39:20Z</time>
      </trkpt>
      <trkpt lat="43.68505" lon="5.25495">
        <ele>327.7</ele>
        <time>2025-12-07T21:39:20Z</time>
      </trkpt>
      <trkpt lat="43.68514" lon="5.25495">
        <ele>328.2</ele>
        <time>2025-12-07T21:39:20Z</time>
      </trkpt>
      <trkpt lat="43.68519" lon="5.25503">
        <ele>330.3</ele>
        <time>2025-12-07T21:39:20Z</time>
      </trkpt>
      <trkpt lat="43.68526" lon="5.25516">
        <ele>334.2</ele>
        <time>2025-12-07T21:39:20Z</time>
      </trkpt>
      <trkpt lat="43.6853" lon="5.25529">
        <ele>333.3</ele>
        <time>2025-12-07T21:39:20Z</time>
      </trkpt>
      <trkpt lat="43.68537" lon="5.2554">
        <ele>333.1</ele>
        <time>2025-12-07T21:39:20Z</time>
      </trkpt>
      <trkpt lat="43.68545" lon="5.25546">
        <ele>333.2</ele>
        <time>2025-12-07T21:39:20Z</time>
      </trkpt>
      <trkpt lat="43.6857" lon="5.25553">
        <ele>334.7</ele>
        <time>2025-12-07T21:39:20Z</time>
      </trkpt>
      <trkpt lat="43.68586" lon="5.25556">
        <ele>336.3</ele>
        <time>2025-12-07T21:39:20Z</time>
      </trkpt>
      <trkpt lat="43.6859" lon="5.25555">
        <ele>337.3</ele>
        <time>2025-12-07T21:39:20Z</time>
      </trkpt>
      <trkpt lat="43.68597" lon="5.25538">
        <ele>341.2</ele>
        <time>2025-12-07T21:39:20Z</time>
      </trkpt>
      <trkpt lat="43.68601" lon="5.25518">
        <ele>345.6</ele>
        <time>2025-12-07T21:39:20Z</time>
      </trkpt>
      <trkpt lat="43.68601" lon="5.25499">
        <ele>343.8</ele>
        <time>2025-12-07T21:39:20Z</time>
      </trkpt>
      <trkpt lat="43.68598" lon="5.25483">
        <ele>340.2</ele>
        <time>2025-12-07T21:39:20Z</time>
      </trkpt>
      <trkpt lat="43.68594" lon="5.25461">
        <ele>339.9</ele>
        <time>2025-12-07T21:39:20Z</time>
      </trkpt>
      <trkpt lat="43.68587" lon="5.25453">
        <ele>339.8</ele>
        <time>2025-12-07T21:39:20Z</time>
      </trkpt>
      <trkpt lat="43.68582" lon="5.25448">
        <ele>339.8</ele>
        <time>2025-12-07T21:39:20Z</time>
      </trkpt>
      <trkpt lat="43.68578" lon="5.25436">
        <ele>340.9</ele>
        <time>2025-12-07T21:39:20Z</time>
      </trkpt>
      <trkpt lat="43.68571" lon="5.25417">
        <ele>344.1</ele>
        <time>2025-12-07T21:39:20Z</time>
      </trkpt>
      <trkpt lat="43.68562" lon="5.254">
        <ele>347.9</ele>
        <time>2025-12-07T21:39:20Z</time>
      </trkpt>
      <trkpt lat="43.68552" lon="5.25388">
        <ele>350.6</ele>
        <time>2025-12-07T21:39:20Z</time>
      </trkpt>
      <trkpt lat="43.68544" lon="5.25376">
        <ele>349.4</ele>
        <time>2025-12-07T21:39:20Z</time>
      </trkpt>
      <trkpt lat="43.6854" lon="5.25359">
        <ele>345.8</ele>
        <time>2025-12-07T21:39:20Z</time>
      </trkpt>
      <trkpt lat="43.6854" lon="5.25358">
        <ele>345.8</ele>
        <time>2025-12-07T21:39:20Z</time>
      </trkpt>
      <trkpt lat="43.6854" lon="5.25344">
        <ele>345.1</ele>
        <time>2025-12-07T21:39:20Z</time>
      </trkpt>
      <trkpt lat="43.68541" lon="5.25329">
        <ele>345.3</ele>
        <time>2025-12-07T21:39:20Z</time>
      </trkpt>
      <trkpt lat="43.68532" lon="5.25308">
        <ele>347.6</ele>
        <time>2025-12-07T21:39:20Z</time>
      </trkpt>
      <trkpt lat="43.68523" lon="5.25289">
        <ele>350.4</ele>
        <time>2025-12-07T21:39:20Z</time>
      </trkpt>
      <trkpt lat="43.68519" lon="5.25274">
        <ele>352.7</ele>
        <time>2025-12-07T21:39:20Z</time>
      </trkpt>
      <trkpt lat="43.68522" lon="5.25262">
        <ele>352.4</ele>
        <time>2025-12-07T21:39:20Z</time>
      </trkpt>
      <trkpt lat="43.68525" lon="5.25257">
        <ele>352.1</ele>
        <time>2025-12-07T21:39:20Z</time>
      </trkpt>
      <trkpt lat="43.6853" lon="5.25247">
        <ele>352</ele>
        <time>2025-12-07T21:39:20Z</time>
      </trkpt>
      <trkpt lat="43.68539" lon="5.25238">
        <ele>352</ele>
        <time>2025-12-07T21:39:20Z</time>
      </trkpt>
      <trkpt lat="43.68552" lon="5.25231">
        <ele>352.9</ele>
        <time>2025-12-07T21:39:20Z</time>
      </trkpt>
      <trkpt lat="43.68562" lon="5.25214">
        <ele>353</ele>
        <time>2025-12-07T21:39:20Z</time>
      </trkpt>
      <trkpt lat="43.68569" lon="5.25209">
        <ele>353.3</ele>
        <time>2025-12-07T21:39:20Z</time>
      </trkpt>
      <trkpt lat="43.68576" lon="5.25203">
        <ele>353</ele>
        <time>2025-12-07T21:39:20Z</time>
      </trkpt>
      <trkpt lat="43.68579" lon="5.25198">
        <ele>352.9</ele>
        <time>2025-12-07T21:39:20Z</time>
      </trkpt>
      <trkpt lat="43.68583" lon="5.2519">
        <ele>352.5</ele>
        <time>2025-12-07T21:39:20Z</time>
      </trkpt>
      <trkpt lat="43.68587" lon="5.25176">
        <ele>352</ele>
        <time>2025-12-07T21:39:20Z</time>
      </trkpt>
      <trkpt lat="43.68589" lon="5.25163">
        <ele>352</ele>
        <time>2025-12-07T21:39:20Z</time>
      </trkpt>
      <trkpt lat="43.68588" lon="5.25154">
        <ele>351.8</ele>
        <time>2025-12-07T21:39:20Z</time>
      </trkpt>
      <trkpt lat="43.68586" lon="5.25139">
        <ele>352.1</ele>
        <time>2025-12-07T21:39:20Z</time>
      </trkpt>
      <trkpt lat="43.68587" lon="5.25131">
        <ele>352.4</ele>
        <time>2025-12-07T21:39:20Z</time>
      </trkpt>
      <trkpt lat="43.68589" lon="5.25127">
        <ele>353</ele>
        <time>2025-12-07T21:39:20Z</time>
      </trkpt>
      <trkpt lat="43.68589" lon="5.25125">
        <ele>353.2</ele>
        <time>2025-12-07T21:39:20Z</time>
      </trkpt>
      <trkpt lat="43.68601" lon="5.25108">
        <ele>354.4</ele>
        <time>2025-12-07T21:39:20Z</time>
      </trkpt>
      <trkpt lat="43.68604" lon="5.25103">
        <ele>354.8</ele>
        <time>2025-12-07T21:39:20Z</time>
      </trkpt>
      <trkpt lat="43.68613" lon="5.25094">
        <ele>355.8</ele>
        <time>2025-12-07T21:39:20Z</time>
      </trkpt>
      <trkpt lat="43.68616" lon="5.25087">
        <ele>356.6</ele>
        <time>2025-12-07T21:39:20Z</time>
      </trkpt>
      <trkpt lat="43.68623" lon="5.25072">
        <ele>357.6</ele>
        <time>2025-12-07T21:39:20Z</time>
      </trkpt>
      <trkpt lat="43.68627" lon="5.25046">
        <ele>360.3</ele>
        <time>2025-12-07T21:39:20Z</time>
      </trkpt>
      <trkpt lat="43.68627" lon="5.25028">
        <ele>361.9</ele>
        <time>2025-12-07T21:39:20Z</time>
      </trkpt>
      <trkpt lat="43.6862" lon="5.25003">
        <ele>363.3</ele>
        <time>2025-12-07T21:39:20Z</time>
      </trkpt>
      <trkpt lat="43.68617" lon="5.2499">
        <ele>362.8</ele>
        <time>2025-12-07T21:39:20Z</time>
      </trkpt>
      <trkpt lat="43.68624" lon="5.25001">
        <ele>363.4</ele>
        <time>2025-12-07T21:39:20Z</time>
      </trkpt>
      <trkpt lat="43.68632" lon="5.25013">
        <ele>363.4</ele>
        <time>2025-12-07T21:39:20Z</time>
      </trkpt>
      <trkpt lat="43.68635" lon="5.25018">
        <ele>363.8</ele>
        <time>2025-12-07T21:39:20Z</time>
      </trkpt>
      <trkpt lat="43.68641" lon="5.25028">
        <ele>364.2</ele>
        <time>2025-12-07T21:39:20Z</time>
      </trkpt>
      <trkpt lat="43.6864" lon="5.2502">
        <ele>363.9</ele>
        <time>2025-12-07T21:39:20Z</time>
      </trkpt>
      <trkpt lat="43.68639" lon="5.25016">
        <ele>363.5</ele>
        <time>2025-12-07T21:39:20Z</time>
      </trkpt>
      <trkpt lat="43.68645" lon="5.25014">
        <ele>362.1</ele>
        <time>2025-12-07T21:39:20Z</time>
      </trkpt>
      <trkpt lat="43.68648" lon="5.25012">
        <ele>361.3</ele>
        <time>2025-12-07T21:39:20Z</time>
      </trkpt>
      <trkpt lat="43.6865" lon="5.25013">
        <ele>360.4</ele>
        <time>2025-12-07T21:39:20Z</time>
      </trkpt>
      <trkpt lat="43.68666" lon="5.25014">
        <ele>358</ele>
        <time>2025-12-07T21:39:20Z</time>
      </trkpt>
      <trkpt lat="43.68674" lon="5.25014">
        <ele>356.8</ele>
        <time>2025-12-07T21:39:20Z</time>
      </trkpt>
      <trkpt lat="43.68683" lon="5.25017">
        <ele>358.3</ele>
        <time>2025-12-07T21:39:20Z</time>
      </trkpt>
      <trkpt lat="43.68694" lon="5.25024">
        <ele>362.8</ele>
        <time>2025-12-07T21:39:20Z</time>
      </trkpt>
      <trkpt lat="43.687" lon="5.2503">
        <ele>364</ele>
        <time>2025-12-07T21:39:20Z</time>
      </trkpt>
      <trkpt lat="43.68709" lon="5.25037">
        <ele>364.9</ele>
        <time>2025-12-07T21:39:20Z</time>
      </trkpt>
      <trkpt lat="43.6871" lon="5.25041">
        <ele>364.9</ele>
        <time>2025-12-07T21:39:20Z</time>
      </trkpt>
      <trkpt lat="43.6872" lon="5.25047">
        <ele>364.4</ele>
        <time>2025-12-07T21:39:20Z</time>
      </trkpt>
      <trkpt lat="43.68729" lon="5.25058">
        <ele>364.2</ele>
        <time>2025-12-07T21:39:20Z</time>
      </trkpt>
      <trkpt lat="43.68738" lon="5.25071">
        <ele>363.6</ele>
        <time>2025-12-07T21:39:20Z</time>
      </trkpt>
      <trkpt lat="43.68755" lon="5.25092">
        <ele>363.3</ele>
        <time>2025-12-07T21:39:20Z</time>
      </trkpt>
      <trkpt lat="43.68762" lon="5.251">
        <ele>364</ele>
        <time>2025-12-07T21:39:20Z</time>
      </trkpt>
      <trkpt lat="43.6877" lon="5.25102">
        <ele>363.5</ele>
        <time>2025-12-07T21:39:20Z</time>
      </trkpt>
      <trkpt lat="43.68806" lon="5.25099">
        <ele>363.2</ele>
        <time>2025-12-07T21:39:20Z</time>
      </trkpt>
      <trkpt lat="43.68813" lon="5.25099">
        <ele>363</ele>
        <time>2025-12-07T21:39:20Z</time>
      </trkpt>
      <trkpt lat="43.68839" lon="5.25099">
        <ele>362.8</ele>
        <time>2025-12-07T21:39:20Z</time>
      </trkpt>
      <trkpt lat="43.68855" lon="5.25097">
        <ele>363.6</ele>
        <time>2025-12-07T21:39:20Z</time>
      </trkpt>
      <trkpt lat="43.68867" lon="5.25094">
        <ele>363.6</ele>
        <time>2025-12-07T21:39:20Z</time>
      </trkpt>
      <trkpt lat="43.68879" lon="5.25089">
        <ele>365.3</ele>
        <time>2025-12-07T21:39:20Z</time>
      </trkpt>
      <trkpt lat="43.68886" lon="5.25082">
        <ele>366.5</ele>
        <time>2025-12-07T21:39:20Z</time>
      </trkpt>
      <trkpt lat="43.68894" lon="5.2507">
        <ele>367.3</ele>
        <time>2025-12-07T21:39:20Z</time>
      </trkpt>
      <trkpt lat="43.68909" lon="5.25048">
        <ele>368.3</ele>
        <time>2025-12-07T21:39:20Z</time>
      </trkpt>
      <trkpt lat="43.68922" lon="5.2503">
        <ele>370</ele>
        <time>2025-12-07T21:39:20Z</time>
      </trkpt>
      <trkpt lat="43.68936" lon="5.25018">
        <ele>372.3</ele>
        <time>2025-12-07T21:39:20Z</time>
      </trkpt>
      <trkpt lat="43.68953" lon="5.25005">
        <ele>375.4</ele>
        <time>2025-12-07T21:39:20Z</time>
      </trkpt>
      <trkpt lat="43.6896" lon="5.24993">
        <ele>375.6</ele>
        <time>2025-12-07T21:39:20Z</time>
      </trkpt>
      <trkpt lat="43.68966" lon="5.24986">
        <ele>376.1</ele>
        <time>2025-12-07T21:39:20Z</time>
      </trkpt>
      <trkpt lat="43.68973" lon="5.24977">
        <ele>376.3</ele>
        <time>2025-12-07T21:39:20Z</time>
      </trkpt>
      <trkpt lat="43.68978" lon="5.24971">
        <ele>377.2</ele>
        <time>2025-12-07T21:39:20Z</time>
      </trkpt>
      <trkpt lat="43.68979" lon="5.24965">
        <ele>376.6</ele>
        <time>2025-12-07T21:39:20Z</time>
      </trkpt>
      <trkpt lat="43.68979" lon="5.24956">
        <ele>376.1</ele>
        <time>2025-12-07T21:39:20Z</time>
      </trkpt>
      <trkpt lat="43.6898" lon="5.24949">
        <ele>376.7</ele>
        <time>2025-12-07T21:39:20Z</time>
      </trkpt>
      <trkpt lat="43.68983" lon="5.24938">
        <ele>375.9</ele>
        <time>2025-12-07T21:39:20Z</time>
      </trkpt>
      <trkpt lat="43.68985" lon="5.24931">
        <ele>377.4</ele>
        <time>2025-12-07T21:39:20Z</time>
      </trkpt>
      <trkpt lat="43.68984" lon="5.24923">
        <ele>377.3</ele>
        <time>2025-12-07T21:39:20Z</time>
      </trkpt>
      <trkpt lat="43.68981" lon="5.24895">
        <ele>376.3</ele>
        <time>2025-12-07T21:39:20Z</time>
      </trkpt>
      <trkpt lat="43.68978" lon="5.24872">
        <ele>375</ele>
        <time>2025-12-07T21:39:20Z</time>
      </trkpt>
      <trkpt lat="43.68978" lon="5.24861">
        <ele>374.9</ele>
        <time>2025-12-07T21:39:20Z</time>
      </trkpt>
      <trkpt lat="43.68983" lon="5.24846">
        <ele>375.5</ele>
        <time>2025-12-07T21:39:20Z</time>
      </trkpt>
      <trkpt lat="43.68988" lon="5.24829">
        <ele>376.3</ele>
        <time>2025-12-07T21:39:20Z</time>
      </trkpt>
      <trkpt lat="43.68999" lon="5.24806">
        <ele>378.7</ele>
        <time>2025-12-07T21:39:20Z</time>
      </trkpt>
      <trkpt lat="43.69008" lon="5.24794">
        <ele>379</ele>
        <time>2025-12-07T21:39:20Z</time>
      </trkpt>
      <trkpt lat="43.69013" lon="5.24789">
        <ele>379.3</ele>
        <time>2025-12-07T21:39:20Z</time>
      </trkpt>
      <trkpt lat="43.69023" lon="5.24785">
        <ele>381.1</ele>
        <time>2025-12-07T21:39:20Z</time>
      </trkpt>
      <trkpt lat="43.69037" lon="5.24786">
        <ele>380.7</ele>
        <time>2025-12-07T21:39:20Z</time>
      </trkpt>
      <trkpt lat="43.69054" lon="5.2479">
        <ele>377.8</ele>
        <time>2025-12-07T21:39:20Z</time>
      </trkpt>
      <trkpt lat="43.69061" lon="5.24792">
        <ele>376.7</ele>
        <time>2025-12-07T21:39:20Z</time>
      </trkpt>
      <trkpt lat="43.69075" lon="5.24803">
        <ele>376.4</ele>
        <time>2025-12-07T21:39:20Z</time>
      </trkpt>
      <trkpt lat="43.6909" lon="5.24817">
        <ele>378.1</ele>
        <time>2025-12-07T21:39:20Z</time>
      </trkpt>
      <trkpt lat="43.69106" lon="5.24834">
        <ele>378.3</ele>
        <time>2025-12-07T21:39:20Z</time>
      </trkpt>
      <trkpt lat="43.69111" lon="5.24848">
        <ele>377.7</ele>
        <time>2025-12-07T21:39:20Z</time>
      </trkpt>
      <trkpt lat="43.69121" lon="5.24881">
        <ele>376.2</ele>
        <time>2025-12-07T21:39:20Z</time>
      </trkpt>
      <trkpt lat="43.69128" lon="5.249">
        <ele>375.7</ele>
        <time>2025-12-07T21:39:20Z</time>
      </trkpt>
      <trkpt lat="43.69134" lon="5.24906">
        <ele>374</ele>
        <time>2025-12-07T21:39:20Z</time>
      </trkpt>
      <trkpt lat="43.69139" lon="5.24907">
        <ele>374.1</ele>
        <time>2025-12-07T21:39:20Z</time>
      </trkpt>
      <trkpt lat="43.69143" lon="5.24908">
        <ele>373.7</ele>
        <time>2025-12-07T21:39:20Z</time>
      </trkpt>
      <trkpt lat="43.69149" lon="5.24912">
        <ele>373.6</ele>
        <time>2025-12-07T21:39:20Z</time>
      </trkpt>
      <trkpt lat="43.69155" lon="5.24922">
        <ele>374</ele>
        <time>2025-12-07T21:39:20Z</time>
      </trkpt>
      <trkpt lat="43.69161" lon="5.24929">
        <ele>374.5</ele>
        <time>2025-12-07T21:39:20Z</time>
      </trkpt>
      <trkpt lat="43.69167" lon="5.24938">
        <ele>375.8</ele>
        <time>2025-12-07T21:39:20Z</time>
      </trkpt>
      <trkpt lat="43.69179" lon="5.2495">
        <ele>379</ele>
        <time>2025-12-07T21:39:20Z</time>
      </trkpt>
      <trkpt lat="43.6919" lon="5.24956">
        <ele>378.4</ele>
        <time>2025-12-07T21:39:20Z</time>
      </trkpt>
      <trkpt lat="43.69218" lon="5.24969">
        <ele>377.8</ele>
        <time>2025-12-07T21:39:20Z</time>
      </trkpt>
      <trkpt lat="43.69235" lon="5.24976">
        <ele>377.9</ele>
        <time>2025-12-07T21:39:20Z</time>
      </trkpt>
      <trkpt lat="43.69246" lon="5.24983">
        <ele>376.8</ele>
        <time>2025-12-07T21:39:20Z</time>
      </trkpt>
      <trkpt lat="43.69253" lon="5.24991">
        <ele>377</ele>
        <time>2025-12-07T21:39:20Z</time>
      </trkpt>
      <trkpt lat="43.69263" lon="5.25001">
        <ele>376.6</ele>
        <time>2025-12-07T21:39:20Z</time>
      </trkpt>
      <trkpt lat="43.69274" lon="5.25005">
        <ele>376.7</ele>
        <time>2025-12-07T21:39:20Z</time>
      </trkpt>
      <trkpt lat="43.69283" lon="5.25004">
        <ele>376</ele>
        <time>2025-12-07T21:39:20Z</time>
      </trkpt>
      <trkpt lat="43.69306" lon="5.25">
        <ele>377.1</ele>
        <time>2025-12-07T21:39:20Z</time>
      </trkpt>
      <trkpt lat="43.69319" lon="5.24994">
        <ele>377.5</ele>
        <time>2025-12-07T21:39:20Z</time>
      </trkpt>
      <trkpt lat="43.6934" lon="5.24991">
        <ele>378.4</ele>
        <time>2025-12-07T21:39:20Z</time>
      </trkpt>
      <trkpt lat="43.69352" lon="5.24989">
        <ele>379.3</ele>
        <time>2025-12-07T21:39:20Z</time>
      </trkpt>
      <trkpt lat="43.6936" lon="5.24989">
        <ele>380</ele>
        <time>2025-12-07T21:39:20Z</time>
      </trkpt>
      <trkpt lat="43.69367" lon="5.24989">
        <ele>380.8</ele>
        <time>2025-12-07T21:39:20Z</time>
      </trkpt>
      <trkpt lat="43.69377" lon="5.24992">
        <ele>382.2</ele>
        <time>2025-12-07T21:39:20Z</time>
      </trkpt>
      <trkpt lat="43.69393" lon="5.24988">
        <ele>383.1</ele>
        <time>2025-12-07T21:39:20Z</time>
      </trkpt>
      <trkpt lat="43.69402" lon="5.24988">
        <ele>383.8</ele>
        <time>2025-12-07T21:39:20Z</time>
      </trkpt>
      <trkpt lat="43.69413" lon="5.24991">
        <ele>384.8</ele>
        <time>2025-12-07T21:39:20Z</time>
      </trkpt>
      <trkpt lat="43.69424" lon="5.24986">
        <ele>385.4</ele>
        <time>2025-12-07T21:39:20Z</time>
      </trkpt>
      <trkpt lat="43.69444" lon="5.2498">
        <ele>387.1</ele>
        <time>2025-12-07T21:39:20Z</time>
      </trkpt>
      <trkpt lat="43.69472" lon="5.24978">
        <ele>386</ele>
        <time>2025-12-07T21:39:20Z</time>
      </trkpt>
      <trkpt lat="43.69475" lon="5.24983">
        <ele>384.7</ele>
        <time>2025-12-07T21:39:20Z</time>
      </trkpt>
      <trkpt lat="43.69483" lon="5.24993">
        <ele>380.7</ele>
        <time>2025-12-07T21:39:20Z</time>
      </trkpt>
      <trkpt lat="43.69489" lon="5.24999">
        <ele>379.3</ele>
        <time>2025-12-07T21:39:20Z</time>
      </trkpt>
      <trkpt lat="43.69494" lon="5.24999">
        <ele>379.1</ele>
        <time>2025-12-07T21:39:20Z</time>
      </trkpt>
      <trkpt lat="43.69512" lon="5.25">
        <ele>381</ele>
        <time>2025-12-07T21:39:20Z</time>
      </trkpt>
      <trkpt lat="43.69521" lon="5.25002">
        <ele>380.9</ele>
        <time>2025-12-07T21:39:20Z</time>
      </trkpt>
      <trkpt lat="43.69526" lon="5.25001">
        <ele>381.3</ele>
        <time>2025-12-07T21:39:20Z</time>
      </trkpt>
      <trkpt lat="43.69532" lon="5.25001">
        <ele>381.8</ele>
        <time>2025-12-07T21:39:20Z</time>
      </trkpt>
      <trkpt lat="43.69536" lon="5.25006">
        <ele>381.1</ele>
        <time>2025-12-07T21:39:20Z</time>
      </trkpt>
      <trkpt lat="43.69544" lon="5.25007">
        <ele>381.8</ele>
        <time>2025-12-07T21:39:20Z</time>
      </trkpt>
      <trkpt lat="43.69552" lon="5.25011">
        <ele>381.1</ele>
        <time>2025-12-07T21:39:20Z</time>
      </trkpt>
      <trkpt lat="43.69564" lon="5.25018">
        <ele>378.3</ele>
        <time>2025-12-07T21:39:20Z</time>
      </trkpt>
      <trkpt lat="43.69584" lon="5.25036">
        <ele>372.4</ele>
        <time>2025-12-07T21:39:20Z</time>
      </trkpt>
      <trkpt lat="43.69594" lon="5.25045">
        <ele>370.8</ele>
        <time>2025-12-07T21:39:20Z</time>
      </trkpt>
      <trkpt lat="43.69606" lon="5.2505">
        <ele>370.6</ele>
        <time>2025-12-07T21:39:20Z</time>
      </trkpt>
      <trkpt lat="43.69627" lon="5.25057">
        <ele>371.9</ele>
        <time>2025-12-07T21:39:20Z</time>
      </trkpt>
      <trkpt lat="43.69631" lon="5.25064">
        <ele>371.1</ele>
        <time>2025-12-07T21:39:20Z</time>
      </trkpt>
      <trkpt lat="43.69645" lon="5.25075">
        <ele>369.7</ele>
        <time>2025-12-07T21:39:20Z</time>
      </trkpt>
      <trkpt lat="43.69653" lon="5.25076">
        <ele>369.3</ele>
        <time>2025-12-07T21:39:20Z</time>
      </trkpt>
      <trkpt lat="43.69662" lon="5.25079">
        <ele>367.7</ele>
        <time>2025-12-07T21:39:20Z</time>
      </trkpt>
      <trkpt lat="43.69664" lon="5.25087">
        <ele>366.9</ele>
        <time>2025-12-07T21:39:20Z</time>
      </trkpt>
      <trkpt lat="43.69669" lon="5.25092">
        <ele>366.2</ele>
        <time>2025-12-07T21:39:20Z</time>
      </trkpt>
      <trkpt lat="43.69678" lon="5.25099">
        <ele>365.4</ele>
        <time>2025-12-07T21:39:20Z</time>
      </trkpt>
      <trkpt lat="43.69692" lon="5.25107">
        <ele>363.2</ele>
        <time>2025-12-07T21:39:20Z</time>
      </trkpt>
      <trkpt lat="43.69703" lon="5.25107">
        <ele>361.6</ele>
        <time>2025-12-07T21:39:20Z</time>
      </trkpt>
      <trkpt lat="43.69713" lon="5.25111">
        <ele>359.6</ele>
        <time>2025-12-07T21:39:20Z</time>
      </trkpt>
      <trkpt lat="43.6972" lon="5.25107">
        <ele>355.6</ele>
        <time>2025-12-07T21:39:20Z</time>
      </trkpt>
      <trkpt lat="43.6973" lon="5.25103">
        <ele>352.1</ele>
        <time>2025-12-07T21:39:20Z</time>
      </trkpt>
      <trkpt lat="43.69739" lon="5.25094">
        <ele>348.3</ele>
        <time>2025-12-07T21:39:20Z</time>
      </trkpt>
      <trkpt lat="43.69732" lon="5.25087">
        <ele>348.3</ele>
        <time>2025-12-07T21:39:20Z</time>
      </trkpt>
      <trkpt lat="43.69726" lon="5.25072">
        <ele>346.9</ele>
        <time>2025-12-07T21:39:20Z</time>
      </trkpt>
      <trkpt lat="43.69721" lon="5.25062">
        <ele>346.6</ele>
        <time>2025-12-07T21:39:20Z</time>
      </trkpt>
      <trkpt lat="43.6972" lon="5.25054">
        <ele>345</ele>
        <time>2025-12-07T21:39:20Z</time>
      </trkpt>
      <trkpt lat="43.69717" lon="5.25044">
        <ele>345.1</ele>
        <time>2025-12-07T21:39:20Z</time>
      </trkpt>
      <trkpt lat="43.69711" lon="5.25026">
        <ele>341.5</ele>
        <time>2025-12-07T21:39:20Z</time>
      </trkpt>
      <trkpt lat="43.6971" lon="5.25023">
        <ele>341.5</ele>
        <time>2025-12-07T21:39:20Z</time>
      </trkpt>
      <trkpt lat="43.69708" lon="5.25018">
        <ele>342.1</ele>
        <time>2025-12-07T21:39:20Z</time>
      </trkpt>
      <trkpt lat="43.69705" lon="5.25015">
        <ele>340.7</ele>
        <time>2025-12-07T21:39:20Z</time>
      </trkpt>
      <trkpt lat="43.69702" lon="5.25009">
        <ele>340.1</ele>
        <time>2025-12-07T21:39:20Z</time>
      </trkpt>
      <trkpt lat="43.697" lon="5.25002">
        <ele>340.8</ele>
        <time>2025-12-07T21:39:20Z</time>
      </trkpt>
      <trkpt lat="43.69697" lon="5.24997">
        <ele>340.2</ele>
        <time>2025-12-07T21:39:20Z</time>
      </trkpt>
      <trkpt lat="43.69698" lon="5.2499">
        <ele>340.1</ele>
        <time>2025-12-07T21:39:20Z</time>
      </trkpt>
      <trkpt lat="43.697" lon="5.24984">
        <ele>340.6</ele>
        <time>2025-12-07T21:39:20Z</time>
      </trkpt>
      <trkpt lat="43.69703" lon="5.24981">
        <ele>340.3</ele>
        <time>2025-12-07T21:39:20Z</time>
      </trkpt>
      <trkpt lat="43.69707" lon="5.24978">
        <ele>340.5</ele>
        <time>2025-12-07T21:39:20Z</time>
      </trkpt>
      <trkpt lat="43.69714" lon="5.24975">
        <ele>339.8</ele>
        <time>2025-12-07T21:39:20Z</time>
      </trkpt>
      <trkpt lat="43.69718" lon="5.24972">
        <ele>340.9</ele>
        <time>2025-12-07T21:39:20Z</time>
      </trkpt>
      <trkpt lat="43.69726" lon="5.24967">
        <ele>341.5</ele>
        <time>2025-12-07T21:39:20Z</time>
      </trkpt>
      <trkpt lat="43.6973" lon="5.24962">
        <ele>341.7</ele>
        <time>2025-12-07T21:39:20Z</time>
      </trkpt>
      <trkpt lat="43.69734" lon="5.24957">
        <ele>342.4</ele>
        <time>2025-12-07T21:39:20Z</time>
      </trkpt>
      <trkpt lat="43.6974" lon="5.24946">
        <ele>341.5</ele>
        <time>2025-12-07T21:39:20Z</time>
      </trkpt>
      <trkpt lat="43.69742" lon="5.24934">
        <ele>342.5</ele>
        <time>2025-12-07T21:39:20Z</time>
      </trkpt>
      <trkpt lat="43.69741" lon="5.24923">
        <ele>341.4</ele>
        <time>2025-12-07T21:39:20Z</time>
      </trkpt>
      <trkpt lat="43.69738" lon="5.24913">
        <ele>340.8</ele>
        <time>2025-12-07T21:39:20Z</time>
      </trkpt>
      <trkpt lat="43.69735" lon="5.24905">
        <ele>339.1</ele>
        <time>2025-12-07T21:39:20Z</time>
      </trkpt>
      <trkpt lat="43.69732" lon="5.24891">
        <ele>337.7</ele>
        <time>2025-12-07T21:39:20Z</time>
      </trkpt>
      <trkpt lat="43.69728" lon="5.24879">
        <ele>336.2</ele>
        <time>2025-12-07T21:39:20Z</time>
      </trkpt>
      <trkpt lat="43.69723" lon="5.24865">
        <ele>334.8</ele>
        <time>2025-12-07T21:39:20Z</time>
      </trkpt>
      <trkpt lat="43.69719" lon="5.2485">
        <ele>332.9</ele>
        <time>2025-12-07T21:39:20Z</time>
      </trkpt>
      <trkpt lat="43.69715" lon="5.24842">
        <ele>332.8</ele>
        <time>2025-12-07T21:39:20Z</time>
      </trkpt>
      <trkpt lat="43.6971" lon="5.24832">
        <ele>330</ele>
        <time>2025-12-07T21:39:20Z</time>
      </trkpt>
      <trkpt lat="43.69706" lon="5.24829">
        <ele>330.5</ele>
        <time>2025-12-07T21:39:20Z</time>
      </trkpt>
      <trkpt lat="43.69702" lon="5.2482">
        <ele>327.5</ele>
        <time>2025-12-07T21:39:20Z</time>
      </trkpt>
      <trkpt lat="43.69697" lon="5.24815">
        <ele>326.3</ele>
        <time>2025-12-07T21:39:20Z</time>
      </trkpt>
      <trkpt lat="43.69692" lon="5.24814">
        <ele>326</ele>
        <time>2025-12-07T21:39:20Z</time>
      </trkpt>
      <trkpt lat="43.69681" lon="5.24814">
        <ele>324.7</ele>
        <time>2025-12-07T21:39:20Z</time>
      </trkpt>
      <trkpt lat="43.69671" lon="5.24817">
        <ele>324.1</ele>
        <time>2025-12-07T21:39:20Z</time>
      </trkpt>
      <trkpt lat="43.69666" lon="5.24818">
        <ele>321.8</ele>
        <time>2025-12-07T21:39:20Z</time>
      </trkpt>
      <trkpt lat="43.69663" lon="5.24817">
        <ele>321.8</ele>
        <time>2025-12-07T21:39:20Z</time>
      </trkpt>
      <trkpt lat="43.69661" lon="5.24816">
        <ele>320.6</ele>
        <time>2025-12-07T21:39:20Z</time>
      </trkpt>
      <trkpt lat="43.6966" lon="5.24814">
        <ele>320.6</ele>
        <time>2025-12-07T21:39:20Z</time>
      </trkpt>
      <trkpt lat="43.69658" lon="5.2481">
        <ele>319.8</ele>
        <time>2025-12-07T21:39:20Z</time>
      </trkpt>
      <trkpt lat="43.69658" lon="5.24805">
        <ele>319.3</ele>
        <time>2025-12-07T21:39:20Z</time>
      </trkpt>
      <trkpt lat="43.69658" lon="5.248">
        <ele>319.1</ele>
        <time>2025-12-07T21:39:20Z</time>
      </trkpt>
      <trkpt lat="43.69661" lon="5.24796">
        <ele>318.6</ele>
        <time>2025-12-07T21:39:20Z</time>
      </trkpt>
      <trkpt lat="43.69663" lon="5.24793">
        <ele>317.6</ele>
        <time>2025-12-07T21:39:20Z</time>
      </trkpt>
      <trkpt lat="43.69668" lon="5.24793">
        <ele>317.4</ele>
        <time>2025-12-07T21:39:20Z</time>
      </trkpt>
      <trkpt lat="43.69664" lon="5.24789">
        <ele>317.6</ele>
        <time>2025-12-07T21:39:20Z</time>
      </trkpt>
      <trkpt lat="43.69663" lon="5.24787">
        <ele>317.6</ele>
        <time>2025-12-07T21:39:20Z</time>
      </trkpt>
      <trkpt lat="43.69663" lon="5.24786">
        <ele>317.6</ele>
        <time>2025-12-07T21:39:20Z</time>
      </trkpt>
      <trkpt lat="43.69663" lon="5.24782">
        <ele>317.6</ele>
        <time>2025-12-07T21:39:20Z</time>
      </trkpt>
      <trkpt lat="43.69664" lon="5.24778">
        <ele>317.7</ele>
        <time>2025-12-07T21:39:20Z</time>
      </trkpt>
      <trkpt lat="43.69665" lon="5.24774">
        <ele>318.1</ele>
        <time>2025-12-07T21:39:20Z</time>
      </trkpt>
      <trkpt lat="43.6967" lon="5.2476">
        <ele>319.2</ele>
        <time>2025-12-07T21:39:20Z</time>
      </trkpt>
      <trkpt lat="43.6967" lon="5.24756">
        <ele>319.2</ele>
        <time>2025-12-07T21:39:20Z</time>
      </trkpt>
      <trkpt lat="43.6967" lon="5.24753">
        <ele>319.5</ele>
        <time>2025-12-07T21:39:20Z</time>
      </trkpt>
      <trkpt lat="43.69667" lon="5.24741">
        <ele>318.5</ele>
        <time>2025-12-07T21:39:20Z</time>
      </trkpt>
      <trkpt lat="43.69667" lon="5.24731">
        <ele>318.1</ele>
        <time>2025-12-07T21:39:20Z</time>
      </trkpt>
      <trkpt lat="43.69668" lon="5.24728">
        <ele>318.1</ele>
        <time>2025-12-07T21:39:20Z</time>
      </trkpt>
      <trkpt lat="43.69672" lon="5.24722">
        <ele>317.7</ele>
        <time>2025-12-07T21:39:20Z</time>
      </trkpt>
      <trkpt lat="43.69675" lon="5.24719">
        <ele>318</ele>
        <time>2025-12-07T21:39:20Z</time>
      </trkpt>
      <trkpt lat="43.69685" lon="5.2471">
        <ele>318.5</ele>
        <time>2025-12-07T21:39:20Z</time>
      </trkpt>
      <trkpt lat="43.69707" lon="5.24684">
        <ele>318.1</ele>
        <time>2025-12-07T21:39:20Z</time>
      </trkpt>
      <trkpt lat="43.69711" lon="5.2468">
        <ele>317.9</ele>
        <time>2025-12-07T21:39:20Z</time>
      </trkpt>
      <trkpt lat="43.69729" lon="5.24671">
        <ele>317.2</ele>
        <time>2025-12-07T21:39:20Z</time>
      </trkpt>
      <trkpt lat="43.69737" lon="5.24666">
        <ele>317.2</ele>
        <time>2025-12-07T21:39:20Z</time>
      </trkpt>
      <trkpt lat="43.69752" lon="5.2468">
        <ele>318.2</ele>
        <time>2025-12-07T21:39:20Z</time>
      </trkpt>
      <trkpt lat="43.69773" lon="5.24678">
        <ele>318.6</ele>
        <time>2025-12-07T21:39:20Z</time>
      </trkpt>
      <trkpt lat="43.6978" lon="5.24654">
        <ele>317.2</ele>
        <time>2025-12-07T21:39:20Z</time>
      </trkpt>
      <trkpt lat="43.6974" lon="5.24662">
        <ele>317.1</ele>
        <time>2025-12-07T21:39:20Z</time>
      </trkpt>
      <trkpt lat="43.69714" lon="5.24677">
        <ele>317.7</ele>
        <time>2025-12-07T21:39:20Z</time>
      </trkpt>
      <trkpt lat="43.69714" lon="5.24679">
        <ele>317.6</ele>
        <time>2025-12-07T21:39:20Z</time>
      </trkpt>
      <trkpt lat="43.69711" lon="5.2468">
        <ele>317.9</ele>
        <time>2025-12-07T21:39:20Z</time>
      </trkpt>
      <trkpt lat="43.69707" lon="5.24684">
        <ele>318.1</ele>
        <time>2025-12-07T21:39:20Z</time>
      </trkpt>
      <trkpt lat="43.69706" lon="5.24679">
        <ele>318.2</ele>
        <time>2025-12-07T21:39:20Z</time>
      </trkpt>
      <trkpt lat="43.69704" lon="5.24676">
        <ele>318.2</ele>
        <time>2025-12-07T21:39:20Z</time>
      </trkpt>
      <trkpt lat="43.69702" lon="5.24674">
        <ele>317.7</ele>
        <time>2025-12-07T21:39:20Z</time>
      </trkpt>
      <trkpt lat="43.69694" lon="5.24673">
        <ele>318</ele>
        <time>2025-12-07T21:39:20Z</time>
      </trkpt>
      <trkpt lat="43.6968" lon="5.24677">
        <ele>318.8</ele>
        <time>2025-12-07T21:39:20Z</time>
      </trkpt>
      <trkpt lat="43.69668" lon="5.24676">
        <ele>319.5</ele>
        <time>2025-12-07T21:39:20Z</time>
      </trkpt>
      <trkpt lat="43.69666" lon="5.24675">
        <ele>319.8</ele>
        <time>2025-12-07T21:39:20Z</time>
      </trkpt>
      <trkpt lat="43.69664" lon="5.24674">
        <ele>319.5</ele>
        <time>2025-12-07T21:39:20Z</time>
      </trkpt>
      <trkpt lat="43.69641" lon="5.24661">
        <ele>320.3</ele>
        <time>2025-12-07T21:39:20Z</time>
      </trkpt>
      <trkpt lat="43.69635" lon="5.24654">
        <ele>320.6</ele>
        <time>2025-12-07T21:39:20Z</time>
      </trkpt>
      <trkpt lat="43.69626" lon="5.24652">
        <ele>320.4</ele>
        <time>2025-12-07T21:39:20Z</time>
      </trkpt>
      <trkpt lat="43.69622" lon="5.24647">
        <ele>320</ele>
        <time>2025-12-07T21:39:20Z</time>
      </trkpt>
      <trkpt lat="43.69618" lon="5.24629">
        <ele>317.8</ele>
        <time>2025-12-07T21:39:20Z</time>
      </trkpt>
      <trkpt lat="43.69612" lon="5.24609">
        <ele>314.5</ele>
        <time>2025-12-07T21:39:20Z</time>
      </trkpt>
      <trkpt lat="43.69601" lon="5.24579">
        <ele>311.3</ele>
        <time>2025-12-07T21:39:20Z</time>
      </trkpt>
      <trkpt lat="43.69601" lon="5.24578">
        <ele>311.3</ele>
        <time>2025-12-07T21:39:20Z</time>
      </trkpt>
      <trkpt lat="43.69603" lon="5.24559">
        <ele>310.5</ele>
        <time>2025-12-07T21:39:20Z</time>
      </trkpt>
      <trkpt lat="43.69608" lon="5.2454">
        <ele>309.6</ele>
        <time>2025-12-07T21:39:20Z</time>
      </trkpt>
      <trkpt lat="43.69625" lon="5.24515">
        <ele>306.9</ele>
        <time>2025-12-07T21:39:20Z</time>
      </trkpt>
      <trkpt lat="43.69641" lon="5.24492">
        <ele>304.4</ele>
        <time>2025-12-07T21:39:20Z</time>
      </trkpt>
      <trkpt lat="43.69645" lon="5.24486">
        <ele>303.9</ele>
        <time>2025-12-07T21:39:20Z</time>
      </trkpt>
      <trkpt lat="43.69669" lon="5.24485">
        <ele>303.2</ele>
        <time>2025-12-07T21:39:20Z</time>
      </trkpt>
      <trkpt lat="43.69685" lon="5.24473">
        <ele>302.4</ele>
        <time>2025-12-07T21:39:20Z</time>
      </trkpt>
      <trkpt lat="43.697" lon="5.24469">
        <ele>302.6</ele>
        <time>2025-12-07T21:39:20Z</time>
      </trkpt>
      <trkpt lat="43.69721" lon="5.24461">
        <ele>299.7</ele>
        <time>2025-12-07T21:39:20Z</time>
      </trkpt>
      <trkpt lat="43.69728" lon="5.24458">
        <ele>298.9</ele>
        <time>2025-12-07T21:39:20Z</time>
      </trkpt>
      <trkpt lat="43.69731" lon="5.2447">
        <ele>299.7</ele>
        <time>2025-12-07T21:39:20Z</time>
      </trkpt>
      <trkpt lat="43.69761" lon="5.24464">
        <ele>301</ele>
        <time>2025-12-07T21:39:20Z</time>
      </trkpt>
      <trkpt lat="43.6978" lon="5.24459">
        <ele>301.9</ele>
        <time>2025-12-07T21:39:20Z</time>
      </trkpt>
      <trkpt lat="43.69779" lon="5.24445">
        <ele>301.5</ele>
        <time>2025-12-07T21:39:20Z</time>
      </trkpt>
      <trkpt lat="43.69768" lon="5.24431">
        <ele>300.2</ele>
        <time>2025-12-07T21:39:20Z</time>
      </trkpt>
      <trkpt lat="43.69754" lon="5.24393">
        <ele>297</ele>
        <time>2025-12-07T21:39:20Z</time>
      </trkpt>
      <trkpt lat="43.69757" lon="5.24376">
        <ele>297.1</ele>
        <time>2025-12-07T21:39:20Z</time>
      </trkpt>
      <trkpt lat="43.69744" lon="5.24345">
        <ele>294.2</ele>
        <time>2025-12-07T21:39:20Z</time>
      </trkpt>
      <trkpt lat="43.69747" lon="5.24321">
        <ele>293.6</ele>
        <time>2025-12-07T21:39:20Z</time>
      </trkpt>
      <trkpt lat="43.69754" lon="5.24283">
        <ele>290.8</ele>
        <time>2025-12-07T21:39:20Z</time>
      </trkpt>
      <trkpt lat="43.69768" lon="5.2425">
        <ele>288.3</ele>
        <time>2025-12-07T21:39:20Z</time>
      </trkpt>
      <trkpt lat="43.69871" lon="5.24103">
        <ele>279.6</ele>
        <time>2025-12-07T21:39:20Z</time>
      </trkpt>
      <trkpt lat="43.69863" lon="5.24098">
        <ele>277.7</ele>
        <time>2025-12-07T21:39:20Z</time>
      </trkpt>
      <trkpt lat="43.69866" lon="5.2409">
        <ele>277.3</ele>
        <time>2025-12-07T21:39:20Z</time>
      </trkpt>
      <trkpt lat="43.6987" lon="5.24069">
        <ele>275.8</ele>
        <time>2025-12-07T21:39:20Z</time>
      </trkpt>
      <trkpt lat="43.69881" lon="5.24047">
        <ele>275.4</ele>
        <time>2025-12-07T21:39:20Z</time>
      </trkpt>
      <trkpt lat="43.6989" lon="5.24025">
        <ele>274.7</ele>
        <time>2025-12-07T21:39:20Z</time>
      </trkpt>
      <trkpt lat="43.69893" lon="5.24017">
        <ele>273.9</ele>
        <time>2025-12-07T21:39:20Z</time>
      </trkpt>
      <trkpt lat="43.69903" lon="5.23989">
        <ele>274</ele>
        <time>2025-12-07T21:39:20Z</time>
      </trkpt>
      <trkpt lat="43.6991" lon="5.23975">
        <ele>273.7</ele>
        <time>2025-12-07T21:39:20Z</time>
      </trkpt>
      <trkpt lat="43.69917" lon="5.23961">
        <ele>273.9</ele>
        <time>2025-12-07T21:39:20Z</time>
      </trkpt>
      <trkpt lat="43.69935" lon="5.23917">
        <ele>276.2</ele>
        <time>2025-12-07T21:39:20Z</time>
      </trkpt>
      <trkpt lat="43.69936" lon="5.23914">
        <ele>276</ele>
        <time>2025-12-07T21:39:20Z</time>
      </trkpt>
      <trkpt lat="43.69937" lon="5.2391">
        <ele>277.5</ele>
        <time>2025-12-07T21:39:20Z</time>
      </trkpt>
      <trkpt lat="43.69944" lon="5.23884">
        <ele>277.8</ele>
        <time>2025-12-07T21:39:20Z</time>
      </trkpt>
      <trkpt lat="43.69951" lon="5.23852">
        <ele>280.2</ele>
        <time>2025-12-07T21:39:20Z</time>
      </trkpt>
      <trkpt lat="43.69951" lon="5.23843">
        <ele>280.1</ele>
        <time>2025-12-07T21:39:20Z</time>
      </trkpt>
      <trkpt lat="43.69951" lon="5.23838">
        <ele>280</ele>
        <time>2025-12-07T21:39:20Z</time>
      </trkpt>
      <trkpt lat="43.69949" lon="5.23828">
        <ele>279.6</ele>
        <time>2025-12-07T21:39:20Z</time>
      </trkpt>
      <trkpt lat="43.69947" lon="5.23822">
        <ele>279.2</ele>
        <time>2025-12-07T21:39:20Z</time>
      </trkpt>
      <trkpt lat="43.69943" lon="5.23812">
        <ele>279.1</ele>
        <time>2025-12-07T21:39:20Z</time>
      </trkpt>
      <trkpt lat="43.69941" lon="5.23804">
        <ele>278.8</ele>
        <time>2025-12-07T21:39:20Z</time>
      </trkpt>
      <trkpt lat="43.69934" lon="5.23765">
        <ele>279.5</ele>
        <time>2025-12-07T21:39:20Z</time>
      </trkpt>
      <trkpt lat="43.69932" lon="5.23759">
        <ele>280.3</ele>
        <time>2025-12-07T21:39:20Z</time>
      </trkpt>
      <trkpt lat="43.69922" lon="5.23737">
        <ele>278.9</ele>
        <time>2025-12-07T21:39:20Z</time>
      </trkpt>
      <trkpt lat="43.69917" lon="5.23731">
        <ele>279.6</ele>
        <time>2025-12-07T21:39:20Z</time>
      </trkpt>
      <trkpt lat="43.69916" lon="5.23728">
        <ele>279.6</ele>
        <time>2025-12-07T21:39:20Z</time>
      </trkpt>
      <trkpt lat="43.69913" lon="5.23717">
        <ele>280.4</ele>
        <time>2025-12-07T21:39:20Z</time>
      </trkpt>
      <trkpt lat="43.69914" lon="5.23714">
        <ele>280.4</ele>
        <time>2025-12-07T21:39:20Z</time>
      </trkpt>
      <trkpt lat="43.69913" lon="5.2371">
        <ele>281.6</ele>
        <time>2025-12-07T21:39:20Z</time>
      </trkpt>
      <trkpt lat="43.6991" lon="5.23704">
        <ele>283</ele>
        <time>2025-12-07T21:39:20Z</time>
      </trkpt>
      <trkpt lat="43.69911" lon="5.23694">
        <ele>281.9</ele>
        <time>2025-12-07T21:39:20Z</time>
      </trkpt>
      <trkpt lat="43.69909" lon="5.23686">
        <ele>284.8</ele>
        <time>2025-12-07T21:39:20Z</time>
      </trkpt>
      <trkpt lat="43.69909" lon="5.23682">
        <ele>285.9</ele>
        <time>2025-12-07T21:39:20Z</time>
      </trkpt>
      <trkpt lat="43.69912" lon="5.23678">
        <ele>285.6</ele>
        <time>2025-12-07T21:39:20Z</time>
      </trkpt>
      <trkpt lat="43.69918" lon="5.23673">
        <ele>286.5</ele>
        <time>2025-12-07T21:39:20Z</time>
      </trkpt>
      <trkpt lat="43.69919" lon="5.23667">
        <ele>285.4</ele>
        <time>2025-12-07T21:39:20Z</time>
      </trkpt>
      <trkpt lat="43.6992" lon="5.23662">
        <ele>287</ele>
        <time>2025-12-07T21:39:20Z</time>
      </trkpt>
      <trkpt lat="43.69922" lon="5.23656">
        <ele>286</ele>
        <time>2025-12-07T21:39:20Z</time>
      </trkpt>
      <trkpt lat="43.69924" lon="5.23652">
        <ele>285</ele>
        <time>2025-12-07T21:39:20Z</time>
      </trkpt>
      <trkpt lat="43.69928" lon="5.23646">
        <ele>284.2</ele>
        <time>2025-12-07T21:39:20Z</time>
      </trkpt>
      <trkpt lat="43.69933" lon="5.23642">
        <ele>283.5</ele>
        <time>2025-12-07T21:39:20Z</time>
      </trkpt>
      <trkpt lat="43.69935" lon="5.23639">
        <ele>282.9</ele>
        <time>2025-12-07T21:39:20Z</time>
      </trkpt>
      <trkpt lat="43.69937" lon="5.23635">
        <ele>282.1</ele>
        <time>2025-12-07T21:39:20Z</time>
      </trkpt>
      <trkpt lat="43.69939" lon="5.23624">
        <ele>280.7</ele>
        <time>2025-12-07T21:39:20Z</time>
      </trkpt>
      <trkpt lat="43.69939" lon="5.23612">
        <ele>278.8</ele>
        <time>2025-12-07T21:39:20Z</time>
      </trkpt>
      <trkpt lat="43.69938" lon="5.23583">
        <ele>275.9</ele>
        <time>2025-12-07T21:39:20Z</time>
      </trkpt>
      <trkpt lat="43.69939" lon="5.23552">
        <ele>274.4</ele>
        <time>2025-12-07T21:39:20Z</time>
      </trkpt>
      <trkpt lat="43.69938" lon="5.23539">
        <ele>273.5</ele>
        <time>2025-12-07T21:39:20Z</time>
      </trkpt>
      <trkpt lat="43.69936" lon="5.23525">
        <ele>273</ele>
        <time>2025-12-07T21:39:20Z</time>
      </trkpt>
      <trkpt lat="43.69934" lon="5.23518">
        <ele>273.2</ele>
        <time>2025-12-07T21:39:20Z</time>
      </trkpt>
      <trkpt lat="43.69931" lon="5.23512">
        <ele>272.8</ele>
        <time>2025-12-07T21:39:20Z</time>
      </trkpt>
      <trkpt lat="43.69924" lon="5.23494">
        <ele>271.2</ele>
        <time>2025-12-07T21:39:20Z</time>
      </trkpt>
      <trkpt lat="43.69929" lon="5.23487">
        <ele>270.5</ele>
        <time>2025-12-07T21:39:20Z</time>
      </trkpt>
      <trkpt lat="43.69928" lon="5.23462">
        <ele>265</ele>
        <time>2025-12-07T21:39:20Z</time>
      </trkpt>
      <trkpt lat="43.69934" lon="5.23424">
        <ele>252.1</ele>
        <time>2025-12-07T21:39:20Z</time>
      </trkpt>
      <trkpt lat="43.69935" lon="5.23416">
        <ele>248.8</ele>
        <time>2025-12-07T21:39:20Z</time>
      </trkpt>
      <trkpt lat="43.69929" lon="5.23394">
        <ele>243</ele>
        <time>2025-12-07T21:39:20Z</time>
      </trkpt>
      <trkpt lat="43.69924" lon="5.23378">
        <ele>250.8</ele>
        <time>2025-12-07T21:39:20Z</time>
      </trkpt>
      <trkpt lat="43.69922" lon="5.23362">
        <ele>254.9</ele>
        <time>2025-12-07T21:39:20Z</time>
      </trkpt>
      <trkpt lat="43.69912" lon="5.23352">
        <ele>257.5</ele>
        <time>2025-12-07T21:39:20Z</time>
      </trkpt>
      <trkpt lat="43.6991" lon="5.23345">
        <ele>258</ele>
        <time>2025-12-07T21:39:20Z</time>
      </trkpt>
      <trkpt lat="43.69909" lon="5.23337">
        <ele>259.3</ele>
        <time>2025-12-07T21:39:20Z</time>
      </trkpt>
      <trkpt lat="43.69928" lon="5.23337">
        <ele>259.1</ele>
        <time>2025-12-07T21:39:20Z</time>
      </trkpt>
      <trkpt lat="43.69928" lon="5.23335">
        <ele>259.2</ele>
        <time>2025-12-07T21:39:20Z</time>
      </trkpt>
      <trkpt lat="43.69929" lon="5.23336">
        <ele>259.1</ele>
        <time>2025-12-07T21:39:20Z</time>
      </trkpt>
      <trkpt lat="43.69932" lon="5.23336">
        <ele>259.1</ele>
        <time>2025-12-07T21:39:20Z</time>
      </trkpt>
      <trkpt lat="43.69938" lon="5.23334">
        <ele>259.7</ele>
        <time>2025-12-07T21:39:20Z</time>
      </trkpt>
      <trkpt lat="43.69941" lon="5.23333">
        <ele>260</ele>
        <time>2025-12-07T21:39:20Z</time>
      </trkpt>
      <trkpt lat="43.69948" lon="5.23331">
        <ele>259.9</ele>
        <time>2025-12-07T21:39:20Z</time>
      </trkpt>
      <trkpt lat="43.69952" lon="5.23328">
        <ele>260.2</ele>
        <time>2025-12-07T21:39:20Z</time>
      </trkpt>
      <trkpt lat="43.69956" lon="5.23325">
        <ele>259.8</ele>
        <time>2025-12-07T21:39:20Z</time>
      </trkpt>
      <trkpt lat="43.69958" lon="5.23321">
        <ele>259.4</ele>
        <time>2025-12-07T21:39:20Z</time>
      </trkpt>
      <trkpt lat="43.69962" lon="5.23318">
        <ele>258.3</ele>
        <time>2025-12-07T21:39:20Z</time>
      </trkpt>
      <trkpt lat="43.69971" lon="5.23314">
        <ele>260.9</ele>
        <time>2025-12-07T21:39:20Z</time>
      </trkpt>
      <trkpt lat="43.69976" lon="5.23311">
        <ele>260.4</ele>
        <time>2025-12-07T21:39:20Z</time>
      </trkpt>
      <trkpt lat="43.69978" lon="5.23306">
        <ele>260.1</ele>
        <time>2025-12-07T21:39:20Z</time>
      </trkpt>
      <trkpt lat="43.69979" lon="5.23303">
        <ele>259.6</ele>
        <time>2025-12-07T21:39:20Z</time>
      </trkpt>
      <trkpt lat="43.69983" lon="5.233">
        <ele>259.4</ele>
        <time>2025-12-07T21:39:20Z</time>
      </trkpt>
      <trkpt lat="43.69989" lon="5.23294">
        <ele>259.2</ele>
        <time>2025-12-07T21:39:20Z</time>
      </trkpt>
      <trkpt lat="43.69994" lon="5.2329">
        <ele>259</ele>
        <time>2025-12-07T21:39:20Z</time>
      </trkpt>
      <trkpt lat="43.69999" lon="5.23287">
        <ele>258.8</ele>
        <time>2025-12-07T21:39:20Z</time>
      </trkpt>
      <trkpt lat="43.70003" lon="5.23283">
        <ele>258.2</ele>
        <time>2025-12-07T21:39:20Z</time>
      </trkpt>
      <trkpt lat="43.70009" lon="5.2328">
        <ele>257.9</ele>
        <time>2025-12-07T21:39:20Z</time>
      </trkpt>
      <trkpt lat="43.70013" lon="5.23275">
        <ele>256.2</ele>
        <time>2025-12-07T21:39:20Z</time>
      </trkpt>
      <trkpt lat="43.70018" lon="5.23271">
        <ele>255.2</ele>
        <time>2025-12-07T21:39:20Z</time>
      </trkpt>
      <trkpt lat="43.70023" lon="5.23268">
        <ele>254.3</ele>
        <time>2025-12-07T21:39:20Z</time>
      </trkpt>
      <trkpt lat="43.70026" lon="5.23266">
        <ele>253.5</ele>
        <time>2025-12-07T21:39:20Z</time>
      </trkpt>
      <trkpt lat="43.70029" lon="5.23263">
        <ele>253.5</ele>
        <time>2025-12-07T21:39:20Z</time>
      </trkpt>
      <trkpt lat="43.70033" lon="5.23259">
        <ele>252.7</ele>
        <time>2025-12-07T21:39:20Z</time>
      </trkpt>
      <trkpt lat="43.70035" lon="5.23258">
        <ele>251.9</ele>
        <time>2025-12-07T21:39:20Z</time>
      </trkpt>
      <trkpt lat="43.7004" lon="5.23256">
        <ele>252.5</ele>
        <time>2025-12-07T21:39:20Z</time>
      </trkpt>
      <trkpt lat="43.70047" lon="5.23254">
        <ele>253.1</ele>
        <time>2025-12-07T21:39:20Z</time>
      </trkpt>
      <trkpt lat="43.70054" lon="5.2325">
        <ele>253.6</ele>
        <time>2025-12-07T21:39:20Z</time>
      </trkpt>
      <trkpt lat="43.70061" lon="5.23246">
        <ele>254.7</ele>
        <time>2025-12-07T21:39:20Z</time>
      </trkpt>
      <trkpt lat="43.7007" lon="5.23239">
        <ele>255.5</ele>
        <time>2025-12-07T21:39:20Z</time>
      </trkpt>
      <trkpt lat="43.70077" lon="5.23234">
        <ele>255.7</ele>
        <time>2025-12-07T21:39:20Z</time>
      </trkpt>
      <trkpt lat="43.7007" lon="5.23239">
        <ele>255.5</ele>
        <time>2025-12-07T21:39:20Z</time>
      </trkpt>
      <trkpt lat="43.70061" lon="5.23246">
        <ele>254.7</ele>
        <time>2025-12-07T21:39:20Z</time>
      </trkpt>
      <trkpt lat="43.70054" lon="5.2325">
        <ele>253.6</ele>
        <time>2025-12-07T21:39:20Z</time>
      </trkpt>
      <trkpt lat="43.70047" lon="5.23254">
        <ele>253.1</ele>
        <time>2025-12-07T21:39:20Z</time>
      </trkpt>
      <trkpt lat="43.7004" lon="5.23256">
        <ele>252.5</ele>
        <time>2025-12-07T21:39:20Z</time>
      </trkpt>
      <trkpt lat="43.70035" lon="5.23258">
        <ele>251.9</ele>
        <time>2025-12-07T21:39:20Z</time>
      </trkpt>
      <trkpt lat="43.70033" lon="5.23259">
        <ele>252.7</ele>
        <time>2025-12-07T21:39:20Z</time>
      </trkpt>
      <trkpt lat="43.70029" lon="5.23263">
        <ele>253.5</ele>
        <time>2025-12-07T21:39:20Z</time>
      </trkpt>
      <trkpt lat="43.70026" lon="5.23266">
        <ele>253.5</ele>
        <time>2025-12-07T21:39:20Z</time>
      </trkpt>
      <trkpt lat="43.70023" lon="5.23268">
        <ele>254.3</ele>
        <time>2025-12-07T21:39:20Z</time>
      </trkpt>
      <trkpt lat="43.70018" lon="5.23271">
        <ele>255.2</ele>
        <time>2025-12-07T21:39:20Z</time>
      </trkpt>
      <trkpt lat="43.70013" lon="5.23275">
        <ele>256.2</ele>
        <time>2025-12-07T21:39:20Z</time>
      </trkpt>
      <trkpt lat="43.70009" lon="5.2328">
        <ele>257.9</ele>
        <time>2025-12-07T21:39:20Z</time>
      </trkpt>
      <trkpt lat="43.70003" lon="5.23283">
        <ele>258.2</ele>
        <time>2025-12-07T21:39:20Z</time>
      </trkpt>
      <trkpt lat="43.69999" lon="5.23287">
        <ele>258.8</ele>
        <time>2025-12-07T21:39:20Z</time>
      </trkpt>
      <trkpt lat="43.69994" lon="5.2329">
        <ele>259</ele>
        <time>2025-12-07T21:39:20Z</time>
      </trkpt>
      <trkpt lat="43.69989" lon="5.23294">
        <ele>259.2</ele>
        <time>2025-12-07T21:39:20Z</time>
      </trkpt>
      <trkpt lat="43.69983" lon="5.233">
        <ele>259.4</ele>
        <time>2025-12-07T21:39:20Z</time>
      </trkpt>
      <trkpt lat="43.69979" lon="5.23303">
        <ele>259.6</ele>
        <time>2025-12-07T21:39:20Z</time>
      </trkpt>
      <trkpt lat="43.69978" lon="5.23306">
        <ele>260.1</ele>
        <time>2025-12-07T21:39:20Z</time>
      </trkpt>
      <trkpt lat="43.69976" lon="5.23311">
        <ele>260.4</ele>
        <time>2025-12-07T21:39:20Z</time>
      </trkpt>
      <trkpt lat="43.69971" lon="5.23314">
        <ele>260.9</ele>
        <time>2025-12-07T21:39:20Z</time>
      </trkpt>
      <trkpt lat="43.69962" lon="5.23318">
        <ele>258.3</ele>
        <time>2025-12-07T21:39:20Z</time>
      </trkpt>
      <trkpt lat="43.69958" lon="5.23321">
        <ele>259.4</ele>
        <time>2025-12-07T21:39:20Z</time>
      </trkpt>
      <trkpt lat="43.69957" lon="5.23323">
        <ele>259.8</ele>
        <time>2025-12-07T21:39:20Z</time>
      </trkpt>
      <trkpt lat="43.69956" lon="5.23325">
        <ele>259.8</ele>
        <time>2025-12-07T21:39:20Z</time>
      </trkpt>
      <trkpt lat="43.69952" lon="5.23328">
        <ele>260.2</ele>
        <time>2025-12-07T21:39:20Z</time>
      </trkpt>
      <trkpt lat="43.69948" lon="5.23331">
        <ele>259.9</ele>
        <time>2025-12-07T21:39:20Z</time>
      </trkpt>
      <trkpt lat="43.69941" lon="5.23333">
        <ele>260</ele>
        <time>2025-12-07T21:39:20Z</time>
      </trkpt>
      <trkpt lat="43.69938" lon="5.23334">
        <ele>259.7</ele>
        <time>2025-12-07T21:39:20Z</time>
      </trkpt>
      <trkpt lat="43.69932" lon="5.23336">
        <ele>259.1</ele>
        <time>2025-12-07T21:39:20Z</time>
      </trkpt>
      <trkpt lat="43.69929" lon="5.23336">
        <ele>259.1</ele>
        <time>2025-12-07T21:39:20Z</time>
      </trkpt>
      <trkpt lat="43.69926" lon="5.23335">
        <ele>259.2</ele>
        <time>2025-12-07T21:39:20Z</time>
      </trkpt>
      <trkpt lat="43.69919" lon="5.23335">
        <ele>259.2</ele>
        <time>2025-12-07T21:39:20Z</time>
      </trkpt>
      <trkpt lat="43.6991" lon="5.23336">
        <ele>259.3</ele>
        <time>2025-12-07T21:39:20Z</time>
      </trkpt>
      <trkpt lat="43.69905" lon="5.23335">
        <ele>259.2</ele>
        <time>2025-12-07T21:39:20Z</time>
      </trkpt>
      <trkpt lat="43.69899" lon="5.23335">
        <ele>259.2</ele>
        <time>2025-12-07T21:39:20Z</time>
      </trkpt>
      <trkpt lat="43.69896" lon="5.23334">
        <ele>258.9</ele>
        <time>2025-12-07T21:39:20Z</time>
      </trkpt>
      <trkpt lat="43.69893" lon="5.23334">
        <ele>258.1</ele>
        <time>2025-12-07T21:39:20Z</time>
      </trkpt>
      <trkpt lat="43.69892" lon="5.23339">
        <ele>257.9</ele>
        <time>2025-12-07T21:39:20Z</time>
      </trkpt>
      <trkpt lat="43.69891" lon="5.23344">
        <ele>257.6</ele>
        <time>2025-12-07T21:39:20Z</time>
      </trkpt>
      <trkpt lat="43.69889" lon="5.23347">
        <ele>257.1</ele>
        <time>2025-12-07T21:39:20Z</time>
      </trkpt>
      <trkpt lat="43.69887" lon="5.2335">
        <ele>257</ele>
        <time>2025-12-07T21:39:20Z</time>
      </trkpt>
      <trkpt lat="43.69883" lon="5.23353">
        <ele>257.5</ele>
        <time>2025-12-07T21:39:20Z</time>
      </trkpt>
      <trkpt lat="43.6988" lon="5.23356">
        <ele>258.5</ele>
        <time>2025-12-07T21:39:20Z</time>
      </trkpt>
      <trkpt lat="43.69877" lon="5.23359">
        <ele>258.3</ele>
        <time>2025-12-07T21:39:20Z</time>
      </trkpt>
      <trkpt lat="43.69872" lon="5.23366">
        <ele>260.2</ele>
        <time>2025-12-07T21:39:20Z</time>
      </trkpt>
      <trkpt lat="43.69868" lon="5.23371">
        <ele>260.3</ele>
        <time>2025-12-07T21:39:20Z</time>
      </trkpt>
      <trkpt lat="43.69866" lon="5.23374">
        <ele>260.7</ele>
        <time>2025-12-07T21:39:20Z</time>
      </trkpt>
      <trkpt lat="43.69866" lon="5.23379">
        <ele>261.1</ele>
        <time>2025-12-07T21:39:20Z</time>
      </trkpt>
      <trkpt lat="43.69864" lon="5.23383">
        <ele>261.3</ele>
        <time>2025-12-07T21:39:20Z</time>
      </trkpt>
      <trkpt lat="43.69862" lon="5.23387">
        <ele>261.7</ele>
        <time>2025-12-07T21:39:20Z</time>
      </trkpt>
      <trkpt lat="43.69856" lon="5.23394">
        <ele>262.1</ele>
        <time>2025-12-07T21:39:20Z</time>
      </trkpt>
      <trkpt lat="43.69853" lon="5.23399">
        <ele>263</ele>
        <time>2025-12-07T21:39:20Z</time>
      </trkpt>
      <trkpt lat="43.69848" lon="5.23406">
        <ele>263.4</ele>
        <time>2025-12-07T21:39:20Z</time>
      </trkpt>
      <trkpt lat="43.69843" lon="5.23411">
        <ele>263.4</ele>
        <time>2025-12-07T21:39:20Z</time>
      </trkpt>
      <trkpt lat="43.69831" lon="5.23416">
        <ele>266.1</ele>
        <time>2025-12-07T21:39:20Z</time>
      </trkpt>
      <trkpt lat="43.69826" lon="5.23421">
        <ele>267.6</ele>
        <time>2025-12-07T21:39:20Z</time>
      </trkpt>
      <trkpt lat="43.69823" lon="5.23424">
        <ele>269.4</ele>
        <time>2025-12-07T21:39:20Z</time>
      </trkpt>
      <trkpt lat="43.69816" lon="5.23428">
        <ele>273.7</ele>
        <time>2025-12-07T21:39:20Z</time>
      </trkpt>
      <trkpt lat="43.69808" lon="5.23435">
        <ele>276.2</ele>
        <time>2025-12-07T21:39:20Z</time>
      </trkpt>
      <trkpt lat="43.69801" lon="5.23442">
        <ele>280.6</ele>
        <time>2025-12-07T21:39:20Z</time>
      </trkpt>
      <trkpt lat="43.69793" lon="5.23449">
        <ele>285.4</ele>
        <time>2025-12-07T21:39:20Z</time>
      </trkpt>
      <trkpt lat="43.69786" lon="5.23457">
        <ele>289.5</ele>
        <time>2025-12-07T21:39:20Z</time>
      </trkpt>
      <trkpt lat="43.69788" lon="5.23459">
        <ele>288.3</ele>
        <time>2025-12-07T21:39:20Z</time>
      </trkpt>
      <trkpt lat="43.69786" lon="5.23457">
        <ele>289.5</ele>
        <time>2025-12-07T21:39:20Z</time>
      </trkpt>
      <trkpt lat="43.69777" lon="5.23456">
        <ele>291.6</ele>
        <time>2025-12-07T21:39:20Z</time>
      </trkpt>
      <trkpt lat="43.69754" lon="5.23449">
        <ele>296.9</ele>
        <time>2025-12-07T21:39:20Z</time>
      </trkpt>
      <trkpt lat="43.6974" lon="5.23447">
        <ele>299.1</ele>
        <time>2025-12-07T21:39:20Z</time>
      </trkpt>
      <trkpt lat="43.69732" lon="5.23449">
        <ele>300.1</ele>
        <time>2025-12-07T21:39:20Z</time>
      </trkpt>
      <trkpt lat="43.69723" lon="5.23451">
        <ele>298.9</ele>
        <time>2025-12-07T21:39:20Z</time>
      </trkpt>
      <trkpt lat="43.69717" lon="5.23457">
        <ele>298.6</ele>
        <time>2025-12-07T21:39:20Z</time>
      </trkpt>
      <trkpt lat="43.69703" lon="5.2347">
        <ele>298.4</ele>
        <time>2025-12-07T21:39:20Z</time>
      </trkpt>
      <trkpt lat="43.69697" lon="5.2348">
        <ele>297.5</ele>
        <time>2025-12-07T21:39:20Z</time>
      </trkpt>
      <trkpt lat="43.69695" lon="5.23487">
        <ele>296.6</ele>
        <time>2025-12-07T21:39:20Z</time>
      </trkpt>
      <trkpt lat="43.69692" lon="5.23498">
        <ele>296.2</ele>
        <time>2025-12-07T21:39:20Z</time>
      </trkpt>
      <trkpt lat="43.69687" lon="5.23508">
        <ele>296.5</ele>
        <time>2025-12-07T21:39:20Z</time>
      </trkpt>
      <trkpt lat="43.69683" lon="5.23517">
        <ele>297.7</ele>
        <time>2025-12-07T21:39:20Z</time>
      </trkpt>
      <trkpt lat="43.69678" lon="5.23523">
        <ele>297.3</ele>
        <time>2025-12-07T21:39:20Z</time>
      </trkpt>
      <trkpt lat="43.69675" lon="5.23528">
        <ele>297.3</ele>
        <time>2025-12-07T21:39:20Z</time>
      </trkpt>
      <trkpt lat="43.6967" lon="5.23536">
        <ele>296.8</ele>
        <time>2025-12-07T21:39:20Z</time>
      </trkpt>
      <trkpt lat="43.69664" lon="5.23539">
        <ele>297.6</ele>
        <time>2025-12-07T21:39:20Z</time>
      </trkpt>
      <trkpt lat="43.69661" lon="5.23542">
        <ele>299.3</ele>
        <time>2025-12-07T21:39:20Z</time>
      </trkpt>
      <trkpt lat="43.69659" lon="5.23549">
        <ele>299.7</ele>
        <time>2025-12-07T21:39:20Z</time>
      </trkpt>
      <trkpt lat="43.69652" lon="5.23553">
        <ele>301.4</ele>
        <time>2025-12-07T21:39:20Z</time>
      </trkpt>
      <trkpt lat="43.69649" lon="5.23557">
        <ele>301.2</ele>
        <time>2025-12-07T21:39:20Z</time>
      </trkpt>
      <trkpt lat="43.69645" lon="5.23566">
        <ele>300</ele>
        <time>2025-12-07T21:39:20Z</time>
      </trkpt>
      <trkpt lat="43.69638" lon="5.23572">
        <ele>300.7</ele>
        <time>2025-12-07T21:39:20Z</time>
      </trkpt>
      <trkpt lat="43.69629" lon="5.2358">
        <ele>301</ele>
        <time>2025-12-07T21:39:20Z</time>
      </trkpt>
      <trkpt lat="43.69607" lon="5.23598">
        <ele>304.7</ele>
        <time>2025-12-07T21:39:20Z</time>
      </trkpt>
      <trkpt lat="43.6959" lon="5.23606">
        <ele>309.4</ele>
        <time>2025-12-07T21:39:20Z</time>
      </trkpt>
      <trkpt lat="43.69586" lon="5.23607">
        <ele>310.8</ele>
        <time>2025-12-07T21:39:20Z</time>
      </trkpt>
      <trkpt lat="43.69578" lon="5.23611">
        <ele>313.8</ele>
        <time>2025-12-07T21:39:20Z</time>
      </trkpt>
      <trkpt lat="43.69576" lon="5.23622">
        <ele>315.7</ele>
        <time>2025-12-07T21:39:20Z</time>
      </trkpt>
      <trkpt lat="43.69573" lon="5.23624">
        <ele>319.9</ele>
        <time>2025-12-07T21:39:20Z</time>
      </trkpt>
      <trkpt lat="43.69569" lon="5.2362">
        <ele>321.7</ele>
        <time>2025-12-07T21:39:20Z</time>
      </trkpt>
      <trkpt lat="43.69564" lon="5.23627">
        <ele>324.8</ele>
        <time>2025-12-07T21:39:20Z</time>
      </trkpt>
      <trkpt lat="43.69558" lon="5.23625">
        <ele>328.2</ele>
        <time>2025-12-07T21:39:20Z</time>
      </trkpt>
      <trkpt lat="43.69554" lon="5.23625">
        <ele>329.6</ele>
        <time>2025-12-07T21:39:20Z</time>
      </trkpt>
      <trkpt lat="43.6955" lon="5.23629">
        <ele>330</ele>
        <time>2025-12-07T21:39:20Z</time>
      </trkpt>
      <trkpt lat="43.69548" lon="5.23616">
        <ele>329.4</ele>
        <time>2025-12-07T21:39:20Z</time>
      </trkpt>
      <trkpt lat="43.69542" lon="5.23602">
        <ele>328.6</ele>
        <time>2025-12-07T21:39:20Z</time>
      </trkpt>
      <trkpt lat="43.69535" lon="5.23582">
        <ele>323.1</ele>
        <time>2025-12-07T21:39:20Z</time>
      </trkpt>
      <trkpt lat="43.6952" lon="5.23559">
        <ele>318.4</ele>
        <time>2025-12-07T21:39:20Z</time>
      </trkpt>
      <trkpt lat="43.69514" lon="5.23552">
        <ele>319.4</ele>
        <time>2025-12-07T21:39:20Z</time>
      </trkpt>
      <trkpt lat="43.69511" lon="5.23542">
        <ele>319</ele>
        <time>2025-12-07T21:39:20Z</time>
      </trkpt>
      <trkpt lat="43.69506" lon="5.2352">
        <ele>319.6</ele>
        <time>2025-12-07T21:39:20Z</time>
      </trkpt>
      <trkpt lat="43.69504" lon="5.2351">
        <ele>319.5</ele>
        <time>2025-12-07T21:39:20Z</time>
      </trkpt>
      <trkpt lat="43.69505" lon="5.23489">
        <ele>318.8</ele>
        <time>2025-12-07T21:39:20Z</time>
      </trkpt>
      <trkpt lat="43.69506" lon="5.23476">
        <ele>318.4</ele>
        <time>2025-12-07T21:39:20Z</time>
      </trkpt>
      <trkpt lat="43.69507" lon="5.23459">
        <ele>315.9</ele>
        <time>2025-12-07T21:39:20Z</time>
      </trkpt>
      <trkpt lat="43.69512" lon="5.23433">
        <ele>311.2</ele>
        <time>2025-12-07T21:39:20Z</time>
      </trkpt>
      <trkpt lat="43.69514" lon="5.23426">
        <ele>310.3</ele>
        <time>2025-12-07T21:39:20Z</time>
      </trkpt>
      <trkpt lat="43.69514" lon="5.23416">
        <ele>308.2</ele>
        <time>2025-12-07T21:39:20Z</time>
      </trkpt>
      <trkpt lat="43.69515" lon="5.23412">
        <ele>307.5</ele>
        <time>2025-12-07T21:39:20Z</time>
      </trkpt>
      <trkpt lat="43.69516" lon="5.23408">
        <ele>307.5</ele>
        <time>2025-12-07T21:39:20Z</time>
      </trkpt>
      <trkpt lat="43.69525" lon="5.23378">
        <ele>304.5</ele>
        <time>2025-12-07T21:39:20Z</time>
      </trkpt>
      <trkpt lat="43.69526" lon="5.23367">
        <ele>303.7</ele>
        <time>2025-12-07T21:39:20Z</time>
      </trkpt>
      <trkpt lat="43.69521" lon="5.23358">
        <ele>304.3</ele>
        <time>2025-12-07T21:39:20Z</time>
      </trkpt>
      <trkpt lat="43.69516" lon="5.23351">
        <ele>304.2</ele>
        <time>2025-12-07T21:39:20Z</time>
      </trkpt>
      <trkpt lat="43.69504" lon="5.23339">
        <ele>304.8</ele>
        <time>2025-12-07T21:39:20Z</time>
      </trkpt>
      <trkpt lat="43.69493" lon="5.23321">
        <ele>304.4</ele>
        <time>2025-12-07T21:39:20Z</time>
      </trkpt>
      <trkpt lat="43.69489" lon="5.23315">
        <ele>303.5</ele>
        <time>2025-12-07T21:39:20Z</time>
      </trkpt>
      <trkpt lat="43.6948" lon="5.23305">
        <ele>301.8</ele>
        <time>2025-12-07T21:39:20Z</time>
      </trkpt>
      <trkpt lat="43.69475" lon="5.23301">
        <ele>301.8</ele>
        <time>2025-12-07T21:39:20Z</time>
      </trkpt>
      <trkpt lat="43.69461" lon="5.23293">
        <ele>301.4</ele>
        <time>2025-12-07T21:39:20Z</time>
      </trkpt>
      <trkpt lat="43.69455" lon="5.23292">
        <ele>299.6</ele>
        <time>2025-12-07T21:39:20Z</time>
      </trkpt>
      <trkpt lat="43.69446" lon="5.23294">
        <ele>298.2</ele>
        <time>2025-12-07T21:39:20Z</time>
      </trkpt>
      <trkpt lat="43.69439" lon="5.23291">
        <ele>297.2</ele>
        <time>2025-12-07T21:39:20Z</time>
      </trkpt>
      <trkpt lat="43.69424" lon="5.23279">
        <ele>293</ele>
        <time>2025-12-07T21:39:20Z</time>
      </trkpt>
      <trkpt lat="43.69416" lon="5.23267">
        <ele>291.6</ele>
        <time>2025-12-07T21:39:20Z</time>
      </trkpt>
      <trkpt lat="43.6941" lon="5.23242">
        <ele>290.9</ele>
        <time>2025-12-07T21:39:20Z</time>
      </trkpt>
      <trkpt lat="43.69405" lon="5.23235">
        <ele>291</ele>
        <time>2025-12-07T21:39:20Z</time>
      </trkpt>
      <trkpt lat="43.69405" lon="5.23232">
        <ele>291</ele>
        <time>2025-12-07T21:39:20Z</time>
      </trkpt>
      <trkpt lat="43.69405" lon="5.23219">
        <ele>289.4</ele>
        <time>2025-12-07T21:39:20Z</time>
      </trkpt>
      <trkpt lat="43.69403" lon="5.232">
        <ele>287.4</ele>
        <time>2025-12-07T21:39:20Z</time>
      </trkpt>
      <trkpt lat="43.69404" lon="5.2319">
        <ele>286.1</ele>
        <time>2025-12-07T21:39:20Z</time>
      </trkpt>
      <trkpt lat="43.69403" lon="5.2318">
        <ele>283.4</ele>
        <time>2025-12-07T21:39:20Z</time>
      </trkpt>
      <trkpt lat="43.69401" lon="5.2317">
        <ele>282.5</ele>
        <time>2025-12-07T21:39:20Z</time>
      </trkpt>
      <trkpt lat="43.69401" lon="5.23162">
        <ele>281.9</ele>
        <time>2025-12-07T21:39:20Z</time>
      </trkpt>
      <trkpt lat="43.69406" lon="5.23145">
        <ele>279.4</ele>
        <time>2025-12-07T21:39:20Z</time>
      </trkpt>
      <trkpt lat="43.69408" lon="5.23142">
        <ele>278.6</ele>
        <time>2025-12-07T21:39:20Z</time>
      </trkpt>
      <trkpt lat="43.6941" lon="5.23137">
        <ele>278.3</ele>
        <time>2025-12-07T21:39:20Z</time>
      </trkpt>
      <trkpt lat="43.6941" lon="5.23117">
        <ele>274.4</ele>
        <time>2025-12-07T21:39:20Z</time>
      </trkpt>
      <trkpt lat="43.69409" lon="5.23107">
        <ele>272.8</ele>
        <time>2025-12-07T21:39:20Z</time>
      </trkpt>
      <trkpt lat="43.69401" lon="5.23088">
        <ele>267.4</ele>
        <time>2025-12-07T21:39:20Z</time>
      </trkpt>
      <trkpt lat="43.69397" lon="5.23075">
        <ele>264</ele>
        <time>2025-12-07T21:39:20Z</time>
      </trkpt>
      <trkpt lat="43.69396" lon="5.23059">
        <ele>262.7</ele>
        <time>2025-12-07T21:39:20Z</time>
      </trkpt>
      <trkpt lat="43.69396" lon="5.23052">
        <ele>262.4</ele>
        <time>2025-12-07T21:39:20Z</time>
      </trkpt>
      <trkpt lat="43.69401" lon="5.23028">
        <ele>263.5</ele>
        <time>2025-12-07T21:39:20Z</time>
      </trkpt>
      <trkpt lat="43.69408" lon="5.23004">
        <ele>266.7</ele>
        <time>2025-12-07T21:39:20Z</time>
      </trkpt>
      <trkpt lat="43.69411" lon="5.22994">
        <ele>267.5</ele>
        <time>2025-12-07T21:39:20Z</time>
      </trkpt>
      <trkpt lat="43.69413" lon="5.22984">
        <ele>267.5</ele>
        <time>2025-12-07T21:39:20Z</time>
      </trkpt>
      <trkpt lat="43.69413" lon="5.22981">
        <ele>267.6</ele>
        <time>2025-12-07T21:39:20Z</time>
      </trkpt>
      <trkpt lat="43.69413" lon="5.22977">
        <ele>268</ele>
        <time>2025-12-07T21:39:20Z</time>
      </trkpt>
      <trkpt lat="43.69412" lon="5.2296">
        <ele>270.3</ele>
        <time>2025-12-07T21:39:20Z</time>
      </trkpt>
      <trkpt lat="43.69411" lon="5.22947">
        <ele>271.1</ele>
        <time>2025-12-07T21:39:20Z</time>
      </trkpt>
      <trkpt lat="43.69408" lon="5.22934">
        <ele>271.7</ele>
        <time>2025-12-07T21:39:20Z</time>
      </trkpt>
      <trkpt lat="43.69406" lon="5.22923">
        <ele>271.4</ele>
        <time>2025-12-07T21:39:20Z</time>
      </trkpt>
      <trkpt lat="43.69405" lon="5.22919">
        <ele>271.5</ele>
        <time>2025-12-07T21:39:20Z</time>
      </trkpt>
      <trkpt lat="43.69404" lon="5.22916">
        <ele>270.9</ele>
        <time>2025-12-07T21:39:20Z</time>
      </trkpt>
      <trkpt lat="43.69405" lon="5.22919">
        <ele>271.5</ele>
        <time>2025-12-07T21:39:20Z</time>
      </trkpt>
      <trkpt lat="43.69406" lon="5.22923">
        <ele>271.4</ele>
        <time>2025-12-07T21:39:20Z</time>
      </trkpt>
      <trkpt lat="43.69393" lon="5.22919">
        <ele>269.8</ele>
        <time>2025-12-07T21:39:20Z</time>
      </trkpt>
      <trkpt lat="43.6938" lon="5.22917">
        <ele>267.7</ele>
        <time>2025-12-07T21:39:20Z</time>
      </trkpt>
      <trkpt lat="43.69375" lon="5.22917">
        <ele>267.1</ele>
        <time>2025-12-07T21:39:20Z</time>
      </trkpt>
      <trkpt lat="43.69368" lon="5.2292">
        <ele>266.7</ele>
        <time>2025-12-07T21:39:20Z</time>
      </trkpt>
      <trkpt lat="43.69362" lon="5.22923">
        <ele>266.2</ele>
        <time>2025-12-07T21:39:20Z</time>
      </trkpt>
      <trkpt lat="43.69355" lon="5.22932">
        <ele>266.1</ele>
        <time>2025-12-07T21:39:20Z</time>
      </trkpt>
      <trkpt lat="43.69349" lon="5.22954">
        <ele>265.5</ele>
        <time>2025-12-07T21:39:20Z</time>
      </trkpt>
      <trkpt lat="43.69346" lon="5.22958">
        <ele>264.9</ele>
        <time>2025-12-07T21:39:20Z</time>
      </trkpt>
      <trkpt lat="43.69342" lon="5.2296">
        <ele>264.4</ele>
        <time>2025-12-07T21:39:20Z</time>
      </trkpt>
      <trkpt lat="43.69339" lon="5.2296">
        <ele>264.3</ele>
        <time>2025-12-07T21:39:20Z</time>
      </trkpt>
      <trkpt lat="43.69335" lon="5.22956">
        <ele>263.8</ele>
        <time>2025-12-07T21:39:20Z</time>
      </trkpt>
      <trkpt lat="43.69333" lon="5.2295">
        <ele>263</ele>
        <time>2025-12-07T21:39:20Z</time>
      </trkpt>
      <trkpt lat="43.69332" lon="5.22944">
        <ele>262.5</ele>
        <time>2025-12-07T21:39:20Z</time>
      </trkpt>
      <trkpt lat="43.6933" lon="5.22928">
        <ele>261</ele>
        <time>2025-12-07T21:39:20Z</time>
      </trkpt>
      <trkpt lat="43.6932" lon="5.22904">
        <ele>257.3</ele>
        <time>2025-12-07T21:39:20Z</time>
      </trkpt>
      <trkpt lat="43.69314" lon="5.22889">
        <ele>254.5</ele>
        <time>2025-12-07T21:39:20Z</time>
      </trkpt>
      <trkpt lat="43.69314" lon="5.22874">
        <ele>252.5</ele>
        <time>2025-12-07T21:39:20Z</time>
      </trkpt>
      <trkpt lat="43.69315" lon="5.2284">
        <ele>248.7</ele>
        <time>2025-12-07T21:39:20Z</time>
      </trkpt>
      <trkpt lat="43.69315" lon="5.22833">
        <ele>247.7</ele>
        <time>2025-12-07T21:39:20Z</time>
      </trkpt>
      <trkpt lat="43.69318" lon="5.22823">
        <ele>246.7</ele>
        <time>2025-12-07T21:39:20Z</time>
      </trkpt>
      <trkpt lat="43.69326" lon="5.22807">
        <ele>245</ele>
        <time>2025-12-07T21:39:20Z</time>
      </trkpt>
      <trkpt lat="43.69327" lon="5.22802">
        <ele>244.6</ele>
        <time>2025-12-07T21:39:20Z</time>
      </trkpt>
      <trkpt lat="43.69332" lon="5.22781">
        <ele>243.5</ele>
        <time>2025-12-07T21:39:20Z</time>
      </trkpt>
      <trkpt lat="43.69333" lon="5.22768">
        <ele>242.2</ele>
        <time>2025-12-07T21:39:20Z</time>
      </trkpt>
      <trkpt lat="43.69333" lon="5.22764">
        <ele>242</ele>
        <time>2025-12-07T21:39:20Z</time>
      </trkpt>
      <trkpt lat="43.69332" lon="5.22758">
        <ele>241.8</ele>
        <time>2025-12-07T21:39:20Z</time>
      </trkpt>
      <trkpt lat="43.69326" lon="5.22743">
        <ele>238.7</ele>
        <time>2025-12-07T21:39:20Z</time>
      </trkpt>
      <trkpt lat="43.69322" lon="5.22736">
        <ele>237.7</ele>
        <time>2025-12-07T21:39:20Z</time>
      </trkpt>
      <trkpt lat="43.69301" lon="5.22721">
        <ele>233.3</ele>
        <time>2025-12-07T21:39:20Z</time>
      </trkpt>
      <trkpt lat="43.69295" lon="5.22718">
        <ele>232.5</ele>
        <time>2025-12-07T21:39:20Z</time>
      </trkpt>
      <trkpt lat="43.69282" lon="5.22711">
        <ele>230.6</ele>
        <time>2025-12-07T21:39:20Z</time>
      </trkpt>
      <trkpt lat="43.69276" lon="5.22709">
        <ele>230</ele>
        <time>2025-12-07T21:39:20Z</time>
      </trkpt>
      <trkpt lat="43.69265" lon="5.22709">
        <ele>228.5</ele>
        <time>2025-12-07T21:39:20Z</time>
      </trkpt>
      <trkpt lat="43.69255" lon="5.22712">
        <ele>227.1</ele>
        <time>2025-12-07T21:39:20Z</time>
      </trkpt>
      <trkpt lat="43.69248" lon="5.22716">
        <ele>226</ele>
        <time>2025-12-07T21:39:20Z</time>
      </trkpt>
      <trkpt lat="43.69245" lon="5.22718">
        <ele>225.5</ele>
        <time>2025-12-07T21:39:20Z</time>
      </trkpt>
      <trkpt lat="43.69235" lon="5.22733">
        <ele>224.1</ele>
        <time>2025-12-07T21:39:20Z</time>
      </trkpt>
      <trkpt lat="43.69226" lon="5.22742">
        <ele>222.8</ele>
        <time>2025-12-07T21:39:20Z</time>
      </trkpt>
      <trkpt lat="43.69222" lon="5.22748">
        <ele>222.3</ele>
        <time>2025-12-07T21:39:20Z</time>
      </trkpt>
      <trkpt lat="43.69216" lon="5.22754">
        <ele>221.6</ele>
        <time>2025-12-07T21:39:20Z</time>
      </trkpt>
      <trkpt lat="43.69209" lon="5.22759">
        <ele>220.8</ele>
        <time>2025-12-07T21:39:20Z</time>
      </trkpt>
      <trkpt lat="43.69206" lon="5.22767">
        <ele>220.6</ele>
        <time>2025-12-07T21:39:20Z</time>
      </trkpt>
      <trkpt lat="43.69203" lon="5.22776">
        <ele>220.8</ele>
        <time>2025-12-07T21:39:20Z</time>
      </trkpt>
      <trkpt lat="43.69195" lon="5.22791">
        <ele>220.8</ele>
        <time>2025-12-07T21:39:20Z</time>
      </trkpt>
      <trkpt lat="43.69189" lon="5.22797">
        <ele>221.5</ele>
        <time>2025-12-07T21:39:20Z</time>
      </trkpt>
      <trkpt lat="43.69186" lon="5.22803">
        <ele>221.3</ele>
        <time>2025-12-07T21:39:20Z</time>
      </trkpt>
      <trkpt lat="43.69179" lon="5.22818">
        <ele>222.8</ele>
        <time>2025-12-07T21:39:20Z</time>
      </trkpt>
      <trkpt lat="43.69176" lon="5.2283">
        <ele>223.9</ele>
        <time>2025-12-07T21:39:20Z</time>
      </trkpt>
      <trkpt lat="43.69172" lon="5.22848">
        <ele>226.8</ele>
        <time>2025-12-07T21:39:20Z</time>
      </trkpt>
      <trkpt lat="43.69172" lon="5.22856">
        <ele>227.6</ele>
        <time>2025-12-07T21:39:20Z</time>
      </trkpt>
      <trkpt lat="43.69175" lon="5.22892">
        <ele>230.9</ele>
        <time>2025-12-07T21:39:20Z</time>
      </trkpt>
      <trkpt lat="43.69175" lon="5.22909">
        <ele>233.5</ele>
        <time>2025-12-07T21:39:20Z</time>
      </trkpt>
      <trkpt lat="43.69175" lon="5.22912">
        <ele>234</ele>
        <time>2025-12-07T21:39:20Z</time>
      </trkpt>
      <trkpt lat="43.69173" lon="5.22914">
        <ele>234</ele>
        <time>2025-12-07T21:39:20Z</time>
      </trkpt>
      <trkpt lat="43.69156" lon="5.22929">
        <ele>237.2</ele>
        <time>2025-12-07T21:39:20Z</time>
      </trkpt>
      <trkpt lat="43.6915" lon="5.22937">
        <ele>239.2</ele>
        <time>2025-12-07T21:39:20Z</time>
      </trkpt>
      <trkpt lat="43.69142" lon="5.2295">
        <ele>241.4</ele>
        <time>2025-12-07T21:39:20Z</time>
      </trkpt>
      <trkpt lat="43.69135" lon="5.22963">
        <ele>243</ele>
        <time>2025-12-07T21:39:20Z</time>
      </trkpt>
      <trkpt lat="43.69132" lon="5.22975">
        <ele>245.3</ele>
        <time>2025-12-07T21:39:20Z</time>
      </trkpt>
      <trkpt lat="43.69129" lon="5.22991">
        <ele>247</ele>
        <time>2025-12-07T21:39:20Z</time>
      </trkpt>
      <trkpt lat="43.69129" lon="5.22996">
        <ele>247.4</ele>
        <time>2025-12-07T21:39:20Z</time>
      </trkpt>
      <trkpt lat="43.69129" lon="5.23005">
        <ele>248.6</ele>
        <time>2025-12-07T21:39:20Z</time>
      </trkpt>
      <trkpt lat="43.69131" lon="5.23024">
        <ele>251</ele>
        <time>2025-12-07T21:39:20Z</time>
      </trkpt>
      <trkpt lat="43.6913" lon="5.23041">
        <ele>252.5</ele>
        <time>2025-12-07T21:39:20Z</time>
      </trkpt>
      <trkpt lat="43.69123" lon="5.23089">
        <ele>257.8</ele>
        <time>2025-12-07T21:39:20Z</time>
      </trkpt>
      <trkpt lat="43.69128" lon="5.23095">
        <ele>258.7</ele>
        <time>2025-12-07T21:39:20Z</time>
      </trkpt>
      <trkpt lat="43.69143" lon="5.23115">
        <ele>263.2</ele>
        <time>2025-12-07T21:39:20Z</time>
      </trkpt>
      <trkpt lat="43.69144" lon="5.23118">
        <ele>263.8</ele>
        <time>2025-12-07T21:39:20Z</time>
      </trkpt>
      <trkpt lat="43.69156" lon="5.2314">
        <ele>266.7</ele>
        <time>2025-12-07T21:39:20Z</time>
      </trkpt>
      <trkpt lat="43.69162" lon="5.23154">
        <ele>269</ele>
        <time>2025-12-07T21:39:20Z</time>
      </trkpt>
      <trkpt lat="43.69165" lon="5.23167">
        <ele>270.6</ele>
        <time>2025-12-07T21:39:20Z</time>
      </trkpt>
      <trkpt lat="43.69165" lon="5.23172">
        <ele>271</ele>
        <time>2025-12-07T21:39:20Z</time>
      </trkpt>
      <trkpt lat="43.69162" lon="5.23188">
        <ele>272.3</ele>
        <time>2025-12-07T21:39:20Z</time>
      </trkpt>
      <trkpt lat="43.69162" lon="5.23195">
        <ele>272.5</ele>
        <time>2025-12-07T21:39:20Z</time>
      </trkpt>
      <trkpt lat="43.69164" lon="5.23209">
        <ele>272.8</ele>
        <time>2025-12-07T21:39:20Z</time>
      </trkpt>
      <trkpt lat="43.69168" lon="5.23227">
        <ele>273.6</ele>
        <time>2025-12-07T21:39:20Z</time>
      </trkpt>
      <trkpt lat="43.69169" lon="5.23237">
        <ele>274.4</ele>
        <time>2025-12-07T21:39:20Z</time>
      </trkpt>
      <trkpt lat="43.69169" lon="5.23247">
        <ele>275.2</ele>
        <time>2025-12-07T21:39:20Z</time>
      </trkpt>
      <trkpt lat="43.69169" lon="5.23251">
        <ele>275.5</ele>
        <time>2025-12-07T21:39:20Z</time>
      </trkpt>
      <trkpt lat="43.69166" lon="5.2326">
        <ele>276.8</ele>
        <time>2025-12-07T21:39:20Z</time>
      </trkpt>
      <trkpt lat="43.69159" lon="5.23295">
        <ele>282.3</ele>
        <time>2025-12-07T21:39:20Z</time>
      </trkpt>
      <trkpt lat="43.69158" lon="5.233">
        <ele>282.7</ele>
        <time>2025-12-07T21:39:20Z</time>
      </trkpt>
      <trkpt lat="43.69158" lon="5.23311">
        <ele>283.2</ele>
        <time>2025-12-07T21:39:20Z</time>
      </trkpt>
      <trkpt lat="43.69159" lon="5.23321">
        <ele>282.9</ele>
        <time>2025-12-07T21:39:20Z</time>
      </trkpt>
      <trkpt lat="43.69161" lon="5.23333">
        <ele>282.7</ele>
        <time>2025-12-07T21:39:20Z</time>
      </trkpt>
      <trkpt lat="43.69165" lon="5.23356">
        <ele>283.1</ele>
        <time>2025-12-07T21:39:20Z</time>
      </trkpt>
      <trkpt lat="43.69167" lon="5.23366">
        <ele>284.2</ele>
        <time>2025-12-07T21:39:20Z</time>
      </trkpt>
      <trkpt lat="43.69167" lon="5.23373">
        <ele>284.3</ele>
        <time>2025-12-07T21:39:20Z</time>
      </trkpt>
      <trkpt lat="43.69165" lon="5.23383">
        <ele>284.9</ele>
        <time>2025-12-07T21:39:20Z</time>
      </trkpt>
      <trkpt lat="43.69158" lon="5.23408">
        <ele>286.3</ele>
        <time>2025-12-07T21:39:20Z</time>
      </trkpt>
      <trkpt lat="43.69158" lon="5.2344">
        <ele>286.3</ele>
        <time>2025-12-07T21:39:20Z</time>
      </trkpt>
      <trkpt lat="43.69155" lon="5.23479">
        <ele>286.7</ele>
        <time>2025-12-07T21:39:20Z</time>
      </trkpt>
      <trkpt lat="43.69157" lon="5.2349">
        <ele>286.6</ele>
        <time>2025-12-07T21:39:20Z</time>
      </trkpt>
      <trkpt lat="43.69161" lon="5.2351">
        <ele>286</ele>
        <time>2025-12-07T21:39:20Z</time>
      </trkpt>
      <trkpt lat="43.69163" lon="5.23516">
        <ele>285.3</ele>
        <time>2025-12-07T21:39:20Z</time>
      </trkpt>
      <trkpt lat="43.69171" lon="5.23544">
        <ele>284.3</ele>
        <time>2025-12-07T21:39:20Z</time>
      </trkpt>
      <trkpt lat="43.69175" lon="5.23565">
        <ele>284.5</ele>
        <time>2025-12-07T21:39:20Z</time>
      </trkpt>
      <trkpt lat="43.69176" lon="5.23576">
        <ele>284</ele>
        <time>2025-12-07T21:39:20Z</time>
      </trkpt>
      <trkpt lat="43.69177" lon="5.236">
        <ele>284</ele>
        <time>2025-12-07T21:39:20Z</time>
      </trkpt>
      <trkpt lat="43.69178" lon="5.23655">
        <ele>288.1</ele>
        <time>2025-12-07T21:39:20Z</time>
      </trkpt>
      <trkpt lat="43.69178" lon="5.2367">
        <ele>289.9</ele>
        <time>2025-12-07T21:39:20Z</time>
      </trkpt>
      <trkpt lat="43.69179" lon="5.23678">
        <ele>291.2</ele>
        <time>2025-12-07T21:39:20Z</time>
      </trkpt>
      <trkpt lat="43.6919" lon="5.23704">
        <ele>295.3</ele>
        <time>2025-12-07T21:39:20Z</time>
      </trkpt>
      <trkpt lat="43.69195" lon="5.23715">
        <ele>297.2</ele>
        <time>2025-12-07T21:39:20Z</time>
      </trkpt>
      <trkpt lat="43.692" lon="5.23723">
        <ele>298.3</ele>
        <time>2025-12-07T21:39:20Z</time>
      </trkpt>
      <trkpt lat="43.69206" lon="5.23738">
        <ele>300</ele>
        <time>2025-12-07T21:39:20Z</time>
      </trkpt>
      <trkpt lat="43.69213" lon="5.23766">
        <ele>302.6</ele>
        <time>2025-12-07T21:39:20Z</time>
      </trkpt>
      <trkpt lat="43.69221" lon="5.23791">
        <ele>303.3</ele>
        <time>2025-12-07T21:39:20Z</time>
      </trkpt>
      <trkpt lat="43.69225" lon="5.23805">
        <ele>304</ele>
        <time>2025-12-07T21:39:20Z</time>
      </trkpt>
      <trkpt lat="43.69227" lon="5.23814">
        <ele>304.9</ele>
        <time>2025-12-07T21:39:20Z</time>
      </trkpt>
      <trkpt lat="43.69231" lon="5.2382">
        <ele>305.3</ele>
        <time>2025-12-07T21:39:20Z</time>
      </trkpt>
      <trkpt lat="43.69239" lon="5.23828">
        <ele>306.1</ele>
        <time>2025-12-07T21:39:20Z</time>
      </trkpt>
      <trkpt lat="43.69241" lon="5.23831">
        <ele>306.8</ele>
        <time>2025-12-07T21:39:20Z</time>
      </trkpt>
      <trkpt lat="43.69241" lon="5.23833">
        <ele>306.8</ele>
        <time>2025-12-07T21:39:20Z</time>
      </trkpt>
      <trkpt lat="43.69241" lon="5.23859">
        <ele>310.6</ele>
        <time>2025-12-07T21:39:20Z</time>
      </trkpt>
      <trkpt lat="43.69241" lon="5.23872">
        <ele>313</ele>
        <time>2025-12-07T21:39:20Z</time>
      </trkpt>
      <trkpt lat="43.69243" lon="5.23885">
        <ele>314</ele>
        <time>2025-12-07T21:39:20Z</time>
      </trkpt>
      <trkpt lat="43.69246" lon="5.23897">
        <ele>314.1</ele>
        <time>2025-12-07T21:39:20Z</time>
      </trkpt>
      <trkpt lat="43.69247" lon="5.23911">
        <ele>316.9</ele>
        <time>2025-12-07T21:39:20Z</time>
      </trkpt>
      <trkpt lat="43.69246" lon="5.23926">
        <ele>319.2</ele>
        <time>2025-12-07T21:39:20Z</time>
      </trkpt>
      <trkpt lat="43.69246" lon="5.23929">
        <ele>319.9</ele>
        <time>2025-12-07T21:39:20Z</time>
      </trkpt>
      <trkpt lat="43.69245" lon="5.23933">
        <ele>320.7</ele>
        <time>2025-12-07T21:39:20Z</time>
      </trkpt>
      <trkpt lat="43.69242" lon="5.2394">
        <ele>321.6</ele>
        <time>2025-12-07T21:39:20Z</time>
      </trkpt>
      <trkpt lat="43.69241" lon="5.23945">
        <ele>319.7</ele>
        <time>2025-12-07T21:39:20Z</time>
      </trkpt>
      <trkpt lat="43.69243" lon="5.23953">
        <ele>320.8</ele>
        <time>2025-12-07T21:39:20Z</time>
      </trkpt>
      <trkpt lat="43.69247" lon="5.23962">
        <ele>320.2</ele>
        <time>2025-12-07T21:39:20Z</time>
      </trkpt>
      <trkpt lat="43.69247" lon="5.23967">
        <ele>320.5</ele>
        <time>2025-12-07T21:39:20Z</time>
      </trkpt>
      <trkpt lat="43.69249" lon="5.23975">
        <ele>321.5</ele>
        <time>2025-12-07T21:39:20Z</time>
      </trkpt>
      <trkpt lat="43.6925" lon="5.2398">
        <ele>321.1</ele>
        <time>2025-12-07T21:39:20Z</time>
      </trkpt>
      <trkpt lat="43.69248" lon="5.23993">
        <ele>321</ele>
        <time>2025-12-07T21:39:20Z</time>
      </trkpt>
      <trkpt lat="43.69249" lon="5.23997">
        <ele>320.3</ele>
        <time>2025-12-07T21:39:20Z</time>
      </trkpt>
      <trkpt lat="43.69253" lon="5.24002">
        <ele>320.2</ele>
        <time>2025-12-07T21:39:20Z</time>
      </trkpt>
      <trkpt lat="43.69258" lon="5.24009">
        <ele>320.2</ele>
        <time>2025-12-07T21:39:20Z</time>
      </trkpt>
      <trkpt lat="43.69259" lon="5.24013">
        <ele>319.9</ele>
        <time>2025-12-07T21:39:20Z</time>
      </trkpt>
      <trkpt lat="43.69262" lon="5.24018">
        <ele>320.2</ele>
        <time>2025-12-07T21:39:20Z</time>
      </trkpt>
      <trkpt lat="43.69266" lon="5.24023">
        <ele>321.8</ele>
        <time>2025-12-07T21:39:20Z</time>
      </trkpt>
      <trkpt lat="43.69272" lon="5.24032">
        <ele>325.3</ele>
        <time>2025-12-07T21:39:20Z</time>
      </trkpt>
      <trkpt lat="43.69278" lon="5.2404">
        <ele>327.9</ele>
        <time>2025-12-07T21:39:20Z</time>
      </trkpt>
      <trkpt lat="43.69284" lon="5.24045">
        <ele>327.8</ele>
        <time>2025-12-07T21:39:20Z</time>
      </trkpt>
      <trkpt lat="43.69292" lon="5.24047">
        <ele>328.1</ele>
        <time>2025-12-07T21:39:20Z</time>
      </trkpt>
      <trkpt lat="43.693" lon="5.24046">
        <ele>330.2</ele>
        <time>2025-12-07T21:39:20Z</time>
      </trkpt>
      <trkpt lat="43.69302" lon="5.24046">
        <ele>330.3</ele>
        <time>2025-12-07T21:39:20Z</time>
      </trkpt>
      <trkpt lat="43.69307" lon="5.24046">
        <ele>329.8</ele>
        <time>2025-12-07T21:39:20Z</time>
      </trkpt>
      <trkpt lat="43.69313" lon="5.2405">
        <ele>329.5</ele>
        <time>2025-12-07T21:39:20Z</time>
      </trkpt>
      <trkpt lat="43.69317" lon="5.24055">
        <ele>329.4</ele>
        <time>2025-12-07T21:39:20Z</time>
      </trkpt>
      <trkpt lat="43.69323" lon="5.2406">
        <ele>329.8</ele>
        <time>2025-12-07T21:39:20Z</time>
      </trkpt>
      <trkpt lat="43.6933" lon="5.24067">
        <ele>331.5</ele>
        <time>2025-12-07T21:39:20Z</time>
      </trkpt>
      <trkpt lat="43.69337" lon="5.24075">
        <ele>335.1</ele>
        <time>2025-12-07T21:39:20Z</time>
      </trkpt>
      <trkpt lat="43.69346" lon="5.24087">
        <ele>339.6</ele>
        <time>2025-12-07T21:39:20Z</time>
      </trkpt>
      <trkpt lat="43.69362" lon="5.24099">
        <ele>345.6</ele>
        <time>2025-12-07T21:39:20Z</time>
      </trkpt>
      <trkpt lat="43.6937" lon="5.24102">
        <ele>348.8</ele>
        <time>2025-12-07T21:39:20Z</time>
      </trkpt>
      <trkpt lat="43.69379" lon="5.24104">
        <ele>350.8</ele>
        <time>2025-12-07T21:39:20Z</time>
      </trkpt>
      <trkpt lat="43.69381" lon="5.24107">
        <ele>350.8</ele>
        <time>2025-12-07T21:39:20Z</time>
      </trkpt>
      <trkpt lat="43.69388" lon="5.2411">
        <ele>351.1</ele>
        <time>2025-12-07T21:39:20Z</time>
      </trkpt>
      <trkpt lat="43.69393" lon="5.24113">
        <ele>351.2</ele>
        <time>2025-12-07T21:39:20Z</time>
      </trkpt>
      <trkpt lat="43.694" lon="5.24123">
        <ele>350.6</ele>
        <time>2025-12-07T21:39:20Z</time>
      </trkpt>
      <trkpt lat="43.69407" lon="5.24128">
        <ele>352.1</ele>
        <time>2025-12-07T21:39:20Z</time>
      </trkpt>
      <trkpt lat="43.6941" lon="5.2413">
        <ele>352.2</ele>
        <time>2025-12-07T21:39:20Z</time>
      </trkpt>
      <trkpt lat="43.69415" lon="5.24133">
        <ele>353.1</ele>
        <time>2025-12-07T21:39:20Z</time>
      </trkpt>
      <trkpt lat="43.69417" lon="5.24132">
        <ele>353.1</ele>
        <time>2025-12-07T21:39:20Z</time>
      </trkpt>
      <trkpt lat="43.69418" lon="5.24138">
        <ele>353.5</ele>
        <time>2025-12-07T21:39:20Z</time>
      </trkpt>
      <trkpt lat="43.69417" lon="5.24143">
        <ele>352</ele>
        <time>2025-12-07T21:39:20Z</time>
      </trkpt>
      <trkpt lat="43.69419" lon="5.24153">
        <ele>353.3</ele>
        <time>2025-12-07T21:39:20Z</time>
      </trkpt>
      <trkpt lat="43.69421" lon="5.24161">
        <ele>353.7</ele>
        <time>2025-12-07T21:39:20Z</time>
      </trkpt>
      <trkpt lat="43.69423" lon="5.24163">
        <ele>355.3</ele>
        <time>2025-12-07T21:39:20Z</time>
      </trkpt>
      <trkpt lat="43.69423" lon="5.24167">
        <ele>355.7</ele>
        <time>2025-12-07T21:39:20Z</time>
      </trkpt>
      <trkpt lat="43.69424" lon="5.24173">
        <ele>356.3</ele>
        <time>2025-12-07T21:39:20Z</time>
      </trkpt>
      <trkpt lat="43.69425" lon="5.24187">
        <ele>356.4</ele>
        <time>2025-12-07T21:39:20Z</time>
      </trkpt>
      <trkpt lat="43.69426" lon="5.24193">
        <ele>357</ele>
        <time>2025-12-07T21:39:20Z</time>
      </trkpt>
      <trkpt lat="43.69426" lon="5.24197">
        <ele>356.5</ele>
        <time>2025-12-07T21:39:20Z</time>
      </trkpt>
      <trkpt lat="43.69425" lon="5.24206">
        <ele>357.2</ele>
        <time>2025-12-07T21:39:20Z</time>
      </trkpt>
      <trkpt lat="43.69425" lon="5.2422">
        <ele>359.6</ele>
        <time>2025-12-07T21:39:20Z</time>
      </trkpt>
      <trkpt lat="43.69424" lon="5.24232">
        <ele>360.3</ele>
        <time>2025-12-07T21:39:20Z</time>
      </trkpt>
      <trkpt lat="43.69421" lon="5.24237">
        <ele>360.3</ele>
        <time>2025-12-07T21:39:20Z</time>
      </trkpt>
      <trkpt lat="43.69415" lon="5.2425">
        <ele>359.5</ele>
        <time>2025-12-07T21:39:20Z</time>
      </trkpt>
      <trkpt lat="43.69414" lon="5.24254">
        <ele>359.2</ele>
        <time>2025-12-07T21:39:20Z</time>
      </trkpt>
      <trkpt lat="43.69413" lon="5.24258">
        <ele>359.2</ele>
        <time>2025-12-07T21:39:20Z</time>
      </trkpt>
      <trkpt lat="43.69411" lon="5.24267">
        <ele>358.1</ele>
        <time>2025-12-07T21:39:20Z</time>
      </trkpt>
      <trkpt lat="43.6941" lon="5.24281">
        <ele>360.1</ele>
        <time>2025-12-07T21:39:20Z</time>
      </trkpt>
      <trkpt lat="43.69408" lon="5.24288">
        <ele>361</ele>
        <time>2025-12-07T21:39:20Z</time>
      </trkpt>
      <trkpt lat="43.69406" lon="5.24302">
        <ele>366.1</ele>
        <time>2025-12-07T21:39:20Z</time>
      </trkpt>
      <trkpt lat="43.69405" lon="5.24311">
        <ele>368.3</ele>
        <time>2025-12-07T21:39:20Z</time>
      </trkpt>
      <trkpt lat="43.69406" lon="5.2432">
        <ele>370.4</ele>
        <time>2025-12-07T21:39:20Z</time>
      </trkpt>
      <trkpt lat="43.69408" lon="5.24327">
        <ele>372.3</ele>
        <time>2025-12-07T21:39:20Z</time>
      </trkpt>
      <trkpt lat="43.69406" lon="5.24338">
        <ele>374.2</ele>
        <time>2025-12-07T21:39:20Z</time>
      </trkpt>
      <trkpt lat="43.69407" lon="5.24353">
        <ele>377.5</ele>
        <time>2025-12-07T21:39:20Z</time>
      </trkpt>
      <trkpt lat="43.69404" lon="5.24367">
        <ele>380.5</ele>
        <time>2025-12-07T21:39:20Z</time>
      </trkpt>
      <trkpt lat="43.694" lon="5.24377">
        <ele>382.3</ele>
        <time>2025-12-07T21:39:20Z</time>
      </trkpt>
      <trkpt lat="43.694" lon="5.24387">
        <ele>383.7</ele>
        <time>2025-12-07T21:39:20Z</time>
      </trkpt>
      <trkpt lat="43.69401" lon="5.24401">
        <ele>385.2</ele>
        <time>2025-12-07T21:39:20Z</time>
      </trkpt>
      <trkpt lat="43.69401" lon="5.24405">
        <ele>386.2</ele>
        <time>2025-12-07T21:39:20Z</time>
      </trkpt>
      <trkpt lat="43.69402" lon="5.24414">
        <ele>388.2</ele>
        <time>2025-12-07T21:39:20Z</time>
      </trkpt>
      <trkpt lat="43.69403" lon="5.24422">
        <ele>390.1</ele>
        <time>2025-12-07T21:39:20Z</time>
      </trkpt>
      <trkpt lat="43.69405" lon="5.24431">
        <ele>391.2</ele>
        <time>2025-12-07T21:39:20Z</time>
      </trkpt>
      <trkpt lat="43.69406" lon="5.2444">
        <ele>392.9</ele>
        <time>2025-12-07T21:39:20Z</time>
      </trkpt>
      <trkpt lat="43.69406" lon="5.24444">
        <ele>393.7</ele>
        <time>2025-12-07T21:39:20Z</time>
      </trkpt>
      <trkpt lat="43.69406" lon="5.24448">
        <ele>394.6</ele>
        <time>2025-12-07T21:39:20Z</time>
      </trkpt>
      <trkpt lat="43.69408" lon="5.24452">
        <ele>395.3</ele>
        <time>2025-12-07T21:39:20Z</time>
      </trkpt>
      <trkpt lat="43.69411" lon="5.24456">
        <ele>395.8</ele>
        <time>2025-12-07T21:39:20Z</time>
      </trkpt>
      <trkpt lat="43.69412" lon="5.24461">
        <ele>395.6</ele>
        <time>2025-12-07T21:39:20Z</time>
      </trkpt>
      <trkpt lat="43.69413" lon="5.24462">
        <ele>396.3</ele>
        <time>2025-12-07T21:39:20Z</time>
      </trkpt>
      <trkpt lat="43.69417" lon="5.24462">
        <ele>396.3</ele>
        <time>2025-12-07T21:39:20Z</time>
      </trkpt>
      <trkpt lat="43.69423" lon="5.2446">
        <ele>395.4</ele>
        <time>2025-12-07T21:39:20Z</time>
      </trkpt>
      <trkpt lat="43.69425" lon="5.24458">
        <ele>395.8</ele>
        <time>2025-12-07T21:39:20Z</time>
      </trkpt>
      <trkpt lat="43.69427" lon="5.24458">
        <ele>395.2</ele>
        <time>2025-12-07T21:39:20Z</time>
      </trkpt>
      <trkpt lat="43.69428" lon="5.24461">
        <ele>394.5</ele>
        <time>2025-12-07T21:39:20Z</time>
      </trkpt>
      <trkpt lat="43.69427" lon="5.24465">
        <ele>393.6</ele>
        <time>2025-12-07T21:39:20Z</time>
      </trkpt>
      <trkpt lat="43.69423" lon="5.24467">
        <ele>394.4</ele>
        <time>2025-12-07T21:39:20Z</time>
      </trkpt>
      <trkpt lat="43.6942" lon="5.2447">
        <ele>394.1</ele>
        <time>2025-12-07T21:39:20Z</time>
      </trkpt>
      <trkpt lat="43.69419" lon="5.24474">
        <ele>393.5</ele>
        <time>2025-12-07T21:39:20Z</time>
      </trkpt>
      <trkpt lat="43.69416" lon="5.24479">
        <ele>392.4</ele>
        <time>2025-12-07T21:39:20Z</time>
      </trkpt>
      <trkpt lat="43.69414" lon="5.24487">
        <ele>390.8</ele>
        <time>2025-12-07T21:39:20Z</time>
      </trkpt>
      <trkpt lat="43.69414" lon="5.24494">
        <ele>390</ele>
        <time>2025-12-07T21:39:20Z</time>
      </trkpt>
      <trkpt lat="43.69415" lon="5.245">
        <ele>388.5</ele>
        <time>2025-12-07T21:39:20Z</time>
      </trkpt>
      <trkpt lat="43.69416" lon="5.24505">
        <ele>387.8</ele>
        <time>2025-12-07T21:39:20Z</time>
      </trkpt>
      <trkpt lat="43.69419" lon="5.24508">
        <ele>386.6</ele>
        <time>2025-12-07T21:39:20Z</time>
      </trkpt>
      <trkpt lat="43.69419" lon="5.24511">
        <ele>386.6</ele>
        <time>2025-12-07T21:39:20Z</time>
      </trkpt>
      <trkpt lat="43.69419" lon="5.24513">
        <ele>385.8</ele>
        <time>2025-12-07T21:39:20Z</time>
      </trkpt>
      <trkpt lat="43.69416" lon="5.24521">
        <ele>385.6</ele>
        <time>2025-12-07T21:39:20Z</time>
      </trkpt>
      <trkpt lat="43.69415" lon="5.24527">
        <ele>385.4</ele>
        <time>2025-12-07T21:39:20Z</time>
      </trkpt>
      <trkpt lat="43.69415" lon="5.24531">
        <ele>385.6</ele>
        <time>2025-12-07T21:39:20Z</time>
      </trkpt>
      <trkpt lat="43.69415" lon="5.24537">
        <ele>385.6</ele>
        <time>2025-12-07T21:39:20Z</time>
      </trkpt>
      <trkpt lat="43.69418" lon="5.24551">
        <ele>385.7</ele>
        <time>2025-12-07T21:39:20Z</time>
      </trkpt>
      <trkpt lat="43.6942" lon="5.2456">
        <ele>386.5</ele>
        <time>2025-12-07T21:39:20Z</time>
      </trkpt>
      <trkpt lat="43.69422" lon="5.24566">
        <ele>386.7</ele>
        <time>2025-12-07T21:39:20Z</time>
      </trkpt>
      <trkpt lat="43.69426" lon="5.24573">
        <ele>387.7</ele>
        <time>2025-12-07T21:39:20Z</time>
      </trkpt>
      <trkpt lat="43.69427" lon="5.24582">
        <ele>389.2</ele>
        <time>2025-12-07T21:39:20Z</time>
      </trkpt>
      <trkpt lat="43.69426" lon="5.24587">
        <ele>389.8</ele>
        <time>2025-12-07T21:39:20Z</time>
      </trkpt>
      <trkpt lat="43.69424" lon="5.24591">
        <ele>391.7</ele>
        <time>2025-12-07T21:39:20Z</time>
      </trkpt>
      <trkpt lat="43.69421" lon="5.24596">
        <ele>393.3</ele>
        <time>2025-12-07T21:39:20Z</time>
      </trkpt>
      <trkpt lat="43.69419" lon="5.24602">
        <ele>394.2</ele>
        <time>2025-12-07T21:39:20Z</time>
      </trkpt>
      <trkpt lat="43.69419" lon="5.24605">
        <ele>394.2</ele>
        <time>2025-12-07T21:39:20Z</time>
      </trkpt>
      <trkpt lat="43.69418" lon="5.2461">
        <ele>394.5</ele>
        <time>2025-12-07T21:39:20Z</time>
      </trkpt>
      <trkpt lat="43.69412" lon="5.24616">
        <ele>396.5</ele>
        <time>2025-12-07T21:39:20Z</time>
      </trkpt>
      <trkpt lat="43.6941" lon="5.24622">
        <ele>396.9</ele>
        <time>2025-12-07T21:39:20Z</time>
      </trkpt>
      <trkpt lat="43.6941" lon="5.24629">
        <ele>397</ele>
        <time>2025-12-07T21:39:20Z</time>
      </trkpt>
      <trkpt lat="43.6941" lon="5.24636">
        <ele>397</ele>
        <time>2025-12-07T21:39:20Z</time>
      </trkpt>
      <trkpt lat="43.69411" lon="5.24641">
        <ele>397.1</ele>
        <time>2025-12-07T21:39:20Z</time>
      </trkpt>
      <trkpt lat="43.69415" lon="5.24648">
        <ele>397</ele>
        <time>2025-12-07T21:39:20Z</time>
      </trkpt>
      <trkpt lat="43.69419" lon="5.24652">
        <ele>396.7</ele>
        <time>2025-12-07T21:39:20Z</time>
      </trkpt>
      <trkpt lat="43.6942" lon="5.24655">
        <ele>396.6</ele>
        <time>2025-12-07T21:39:20Z</time>
      </trkpt>
      <trkpt lat="43.69428" lon="5.24665">
        <ele>395.6</ele>
        <time>2025-12-07T21:39:20Z</time>
      </trkpt>
      <trkpt lat="43.69436" lon="5.24673">
        <ele>395.1</ele>
        <time>2025-12-07T21:39:20Z</time>
      </trkpt>
      <trkpt lat="43.69439" lon="5.24677">
        <ele>394.6</ele>
        <time>2025-12-07T21:39:20Z</time>
      </trkpt>
      <trkpt lat="43.6944" lon="5.24684">
        <ele>394.7</ele>
        <time>2025-12-07T21:39:20Z</time>
      </trkpt>
      <trkpt lat="43.69439" lon="5.24692">
        <ele>393.5</ele>
        <time>2025-12-07T21:39:20Z</time>
      </trkpt>
      <trkpt lat="43.69437" lon="5.24698">
        <ele>393.4</ele>
        <time>2025-12-07T21:39:20Z</time>
      </trkpt>
      <trkpt lat="43.6943" lon="5.24709">
        <ele>392.1</ele>
        <time>2025-12-07T21:39:20Z</time>
      </trkpt>
      <trkpt lat="43.69427" lon="5.24717">
        <ele>391.5</ele>
        <time>2025-12-07T21:39:20Z</time>
      </trkpt>
      <trkpt lat="43.69427" lon="5.24724">
        <ele>390.2</ele>
        <time>2025-12-07T21:39:20Z</time>
      </trkpt>
      <trkpt lat="43.69429" lon="5.24727">
        <ele>389.8</ele>
        <time>2025-12-07T21:39:20Z</time>
      </trkpt>
      <trkpt lat="43.69429" lon="5.24731">
        <ele>389.5</ele>
        <time>2025-12-07T21:39:20Z</time>
      </trkpt>
      <trkpt lat="43.69428" lon="5.24734">
        <ele>389.5</ele>
        <time>2025-12-07T21:39:20Z</time>
      </trkpt>
      <trkpt lat="43.69428" lon="5.24738">
        <ele>389.6</ele>
        <time>2025-12-07T21:39:20Z</time>
      </trkpt>
      <trkpt lat="43.6943" lon="5.24745">
        <ele>389.9</ele>
        <time>2025-12-07T21:39:20Z</time>
      </trkpt>
      <trkpt lat="43.69433" lon="5.2475">
        <ele>389.5</ele>
        <time>2025-12-07T21:39:20Z</time>
      </trkpt>
      <trkpt lat="43.69435" lon="5.24754">
        <ele>389</ele>
        <time>2025-12-07T21:39:20Z</time>
      </trkpt>
      <trkpt lat="43.69436" lon="5.2476">
        <ele>389.6</ele>
        <time>2025-12-07T21:39:20Z</time>
      </trkpt>
      <trkpt lat="43.69438" lon="5.24767">
        <ele>390.3</ele>
        <time>2025-12-07T21:39:20Z</time>
      </trkpt>
      <trkpt lat="43.69438" lon="5.24768">
        <ele>390.3</ele>
        <time>2025-12-07T21:39:20Z</time>
      </trkpt>
      <trkpt lat="43.69438" lon="5.2477">
        <ele>390.4</ele>
        <time>2025-12-07T21:39:20Z</time>
      </trkpt>
      <trkpt lat="43.69436" lon="5.24775">
        <ele>390.5</ele>
        <time>2025-12-07T21:39:20Z</time>
      </trkpt>
      <trkpt lat="43.69436" lon="5.24778">
        <ele>390.6</ele>
        <time>2025-12-07T21:39:20Z</time>
      </trkpt>
      <trkpt lat="43.69436" lon="5.24785">
        <ele>390.8</ele>
        <time>2025-12-07T21:39:20Z</time>
      </trkpt>
      <trkpt lat="43.69439" lon="5.24789">
        <ele>391</ele>
        <time>2025-12-07T21:39:20Z</time>
      </trkpt>
      <trkpt lat="43.69442" lon="5.24793">
        <ele>391.3</ele>
        <time>2025-12-07T21:39:20Z</time>
      </trkpt>
      <trkpt lat="43.69446" lon="5.24796">
        <ele>391.7</ele>
        <time>2025-12-07T21:39:20Z</time>
      </trkpt>
      <trkpt lat="43.69448" lon="5.24798">
        <ele>391.9</ele>
        <time>2025-12-07T21:39:20Z</time>
      </trkpt>
      <trkpt lat="43.6945" lon="5.24802">
        <ele>392.3</ele>
        <time>2025-12-07T21:39:20Z</time>
      </trkpt>
      <trkpt lat="43.69452" lon="5.24803">
        <ele>392.5</ele>
        <time>2025-12-07T21:39:20Z</time>
      </trkpt>
      <trkpt lat="43.69456" lon="5.24803">
        <ele>392.6</ele>
        <time>2025-12-07T21:39:20Z</time>
      </trkpt>
      <trkpt lat="43.69461" lon="5.24806">
        <ele>392.9</ele>
        <time>2025-12-07T21:39:20Z</time>
      </trkpt>
      <trkpt lat="43.69465" lon="5.24811">
        <ele>393.2</ele>
        <time>2025-12-07T21:39:20Z</time>
      </trkpt>
      <trkpt lat="43.69469" lon="5.24815">
        <ele>393.2</ele>
        <time>2025-12-07T21:39:20Z</time>
      </trkpt>
      <trkpt lat="43.69471" lon="5.24819">
        <ele>393.4</ele>
        <time>2025-12-07T21:39:20Z</time>
      </trkpt>
      <trkpt lat="43.69472" lon="5.24827">
        <ele>393.1</ele>
        <time>2025-12-07T21:39:20Z</time>
      </trkpt>
      <trkpt lat="43.69472" lon="5.24832">
        <ele>392.9</ele>
        <time>2025-12-07T21:39:20Z</time>
      </trkpt>
      <trkpt lat="43.69471" lon="5.24834">
        <ele>392.9</ele>
        <time>2025-12-07T21:39:20Z</time>
      </trkpt>
      <trkpt lat="43.6947" lon="5.24839">
        <ele>392.9</ele>
        <time>2025-12-07T21:39:20Z</time>
      </trkpt>
      <trkpt lat="43.6947" lon="5.24843">
        <ele>392.6</ele>
        <time>2025-12-07T21:39:20Z</time>
      </trkpt>
      <trkpt lat="43.69472" lon="5.24847">
        <ele>392.3</ele>
        <time>2025-12-07T21:39:20Z</time>
      </trkpt>
      <trkpt lat="43.69473" lon="5.24851">
        <ele>391.6</ele>
        <time>2025-12-07T21:39:20Z</time>
      </trkpt>
      <trkpt lat="43.69472" lon="5.24854">
        <ele>392</ele>
        <time>2025-12-07T21:39:20Z</time>
      </trkpt>
      <trkpt lat="43.69468" lon="5.24856">
        <ele>391.3</ele>
        <time>2025-12-07T21:39:20Z</time>
      </trkpt>
      <trkpt lat="43.69467" lon="5.24859">
        <ele>390.7</ele>
        <time>2025-12-07T21:39:20Z</time>
      </trkpt>
      <trkpt lat="43.69466" lon="5.24865">
        <ele>390.1</ele>
        <time>2025-12-07T21:39:20Z</time>
      </trkpt>
      <trkpt lat="43.69463" lon="5.24869">
        <ele>389.8</ele>
        <time>2025-12-07T21:39:20Z</time>
      </trkpt>
      <trkpt lat="43.69462" lon="5.24873">
        <ele>389.3</ele>
        <time>2025-12-07T21:39:20Z</time>
      </trkpt>
      <trkpt lat="43.69457" lon="5.24883">
        <ele>388.9</ele>
        <time>2025-12-07T21:39:20Z</time>
      </trkpt>
      <trkpt lat="43.69455" lon="5.24889">
        <ele>388.4</ele>
        <time>2025-12-07T21:39:20Z</time>
      </trkpt>
      <trkpt lat="43.69455" lon="5.24897">
        <ele>388.3</ele>
        <time>2025-12-07T21:39:20Z</time>
      </trkpt>
      <trkpt lat="43.69455" lon="5.2491">
        <ele>388</ele>
        <time>2025-12-07T21:39:20Z</time>
      </trkpt>
      <trkpt lat="43.69456" lon="5.24918">
        <ele>388.1</ele>
        <time>2025-12-07T21:39:20Z</time>
      </trkpt>
      <trkpt lat="43.69455" lon="5.24924">
        <ele>387.7</ele>
        <time>2025-12-07T21:39:20Z</time>
      </trkpt>
      <trkpt lat="43.69454" lon="5.24931">
        <ele>387.6</ele>
        <time>2025-12-07T21:39:20Z</time>
      </trkpt>
      <trkpt lat="43.69454" lon="5.24936">
        <ele>387.7</ele>
        <time>2025-12-07T21:39:20Z</time>
      </trkpt>
      <trkpt lat="43.69451" lon="5.24941">
        <ele>387.5</ele>
        <time>2025-12-07T21:39:20Z</time>
      </trkpt>
      <trkpt lat="43.69448" lon="5.24945">
        <ele>387.7</ele>
        <time>2025-12-07T21:39:20Z</time>
      </trkpt>
      <trkpt lat="43.69442" lon="5.2495">
        <ele>386.6</ele>
        <time>2025-12-07T21:39:20Z</time>
      </trkpt>
      <trkpt lat="43.69436" lon="5.24956">
        <ele>386.2</ele>
        <time>2025-12-07T21:39:20Z</time>
      </trkpt>
      <trkpt lat="43.69404" lon="5.24986">
        <ele>383.6</ele>
        <time>2025-12-07T21:39:20Z</time>
      </trkpt>
      <trkpt lat="43.69402" lon="5.24988">
        <ele>383.8</ele>
        <time>2025-12-07T21:39:20Z</time>
      </trkpt>
      <trkpt lat="43.69399" lon="5.24989">
        <ele>383.4</ele>
        <time>2025-12-07T21:39:20Z</time>
      </trkpt>
      <trkpt lat="43.69389" lon="5.24998">
        <ele>383.2</ele>
        <time>2025-12-07T21:39:20Z</time>
      </trkpt>
    </trkseg>
  </trk>
</gpx>